Time,TemperatureF,DewpointF,PressureIn,WindDirection,WindDirectionDegrees,WindSpeedMPH,WindSpeedGustMPH,Humidity,HourlyPrecipIn,Conditions,Clouds,dailyrainin,SolarRadiationWatts/m^2,SoftwareType,DateUTC
2013-03-27 00:01:00,29.9,24.2,30.31,SE,134,4.0,4.0,79,0.00,,,0.00,0,Wunderground v.1.15,2013-03-27 05:01:00,
2013-03-27 00:03:00,29.9,24.5,30.31,SE,134,2.0,4.0,80,0.00,,,0.00,0,Wunderground v.1.15,2013-03-27 05:03:00,
2013-03-27 00:04:00,29.9,24.5,30.31,SE,134,2.0,4.0,80,0.00,,,0.00,0,Wunderground v.1.15,2013-03-27 05:04:00,
2013-03-27 00:10:00,29.7,24.9,30.31,SE,138,2.0,3.0,82,0.00,,,0.00,0,Wunderground v.1.15,2013-03-27 05:10:00,
2013-03-27 00:12:00,29.5,25.0,30.31,SE,138,3.0,3.0,83,0.00,,,0.00,0,Wunderground v.1.15,2013-03-27 05:12:00,
2013-03-27 00:13:00,29.5,25.0,30.31,SE,138,3.0,3.0,83,0.00,,,0.00,0,Wunderground v.1.15,2013-03-27 05:13:00,
2013-03-27 00:17:00,29.4,24.9,30.31,SE,138,2.0,3.0,83,0.00,,,0.00,0,Wunderground v.1.15,2013-03-27 05:17:00,
2013-03-27 00:19:00,29.4,24.9,30.31,SE,138,2.0,3.0,83,0.00,,,0.00,0,Wunderground v.1.15,2013-03-27 05:19:00,
2013-03-27 00:22:00,29.3,24.8,30.31,SE,138,2.0,3.0,83,0.00,,,0.00,0,Wunderground v.1.15,2013-03-27 05:22:00,
2013-03-27 00:24:00,29.3,25.1,30.31,SE,138,1.0,3.0,84,0.00,,,0.00,0,Wunderground v.1.15,2013-03-27 05:24:00,
2013-03-27 00:25:00,29.3,25.1,30.31,SE,138,2.0,3.0,84,0.00,,,0.00,0,Wunderground v.1.15,2013-03-27 05:25:00,
2013-03-27 00:28:00,29.3,25.1,30.31,SE,138,2.0,3.0,84,0.00,,,0.00,0,Wunderground v.1.15,2013-03-27 05:28:00,
2013-03-27 00:29:00,29.3,25.1,30.31,SE,139,2.0,3.0,84,0.00,,,0.00,0,Wunderground v.1.15,2013-03-27 05:29:00,
2013-03-27 00:31:00,29.3,25.1,30.32,SE,140,3.0,3.0,84,0.00,,,0.00,0,Wunderground v.1.15,2013-03-27 05:31:00,
2013-03-27 00:33:00,29.3,25.1,30.31,SE,140,2.0,3.0,84,0.00,,,0.00,0,Wunderground v.1.15,2013-03-27 05:33:00,
2013-03-27 00:34:00,29.3,25.1,30.31,SE,140,2.0,3.0,84,0.00,,,0.00,0,Wunderground v.1.15,2013-03-27 05:34:00,
2013-03-27 00:37:00,29.3,24.8,30.32,SE,140,2.0,3.0,83,0.00,,,0.00,0,Wunderground v.1.15,2013-03-27 05:37:00,
2013-03-27 00:38:00,29.3,24.8,30.32,SE,140,2.0,3.0,83,0.00,,,0.00,0,Wunderground v.1.15,2013-03-27 05:38:00,
2013-03-27 00:39:00,29.3,25.1,30.32,SE,140,2.0,3.0,84,0.00,,,0.00,0,Wunderground v.1.15,2013-03-27 05:39:00,
2013-03-27 00:42:00,29.3,24.8,30.32,SE,140,2.0,2.0,83,0.00,,,0.00,0,Wunderground v.1.15,2013-03-27 05:42:00,
2013-03-27 00:45:00,29.2,24.7,30.32,SE,140,1.0,2.0,83,0.00,,,0.00,0,Wunderground v.1.15,2013-03-27 05:45:00,
2013-03-27 00:47:00,29.2,24.7,30.32,SE,140,0.0,2.0,83,0.00,,,0.00,0,Wunderground v.1.15,2013-03-27 05:47:00,
2013-03-27 00:50:00,29.0,24.5,30.31,SE,140,2.0,2.0,83,0.00,,,0.00,0,Wunderground v.1.15,2013-03-27 05:50:00,
2013-03-27 00:51:00,29.0,24.5,30.31,SE,140,1.0,2.0,83,0.00,,,0.00,0,Wunderground v.1.15,2013-03-27 05:51:00,
2013-03-27 00:54:00,29.2,24.4,30.31,SE,140,2.0,2.0,82,0.00,,,0.00,0,Wunderground v.1.15,2013-03-27 05:54:00,
2013-03-27 00:57:00,29.4,24.3,30.32,SE,140,2.0,2.0,81,0.00,,,0.00,0,Wunderground v.1.15,2013-03-27 05:57:00,
2013-03-27 00:58:00,29.4,24.0,30.31,SE,140,3.0,3.0,80,0.00,,,0.00,0,Wunderground v.1.15,2013-03-27 05:58:00,
2013-03-27 01:00:00,29.6,24.2,30.31,SE,140,0.0,1.0,80,0.00,,,0.00,0,Wunderground v.1.15,2013-03-27 06:00:00,
2013-03-27 01:03:00,29.6,23.9,30.31,SE,140,2.0,3.0,79,0.00,,,0.00,0,Wunderground v.1.15,2013-03-27 06:03:00,
2013-03-27 01:05:00,29.7,24.0,30.31,SE,140,1.0,3.0,79,0.00,,,0.00,0,Wunderground v.1.15,2013-03-27 06:05:00,
2013-03-27 01:06:00,29.6,23.9,30.31,SE,140,1.0,3.0,79,0.00,,,0.00,0,Wunderground v.1.15,2013-03-27 06:06:00,
2013-03-27 01:08:00,29.6,23.9,30.31,SE,140,2.0,3.0,79,0.00,,,0.00,0,Wunderground v.1.15,2013-03-27 06:08:00,
2013-03-27 01:12:00,29.4,23.4,30.31,SE,138,0.0,2.0,78,0.00,,,0.00,0,Wunderground v.1.15,2013-03-27 06:12:00,
2013-03-27 01:14:00,29.3,23.3,30.31,SE,138,0.0,2.0,78,0.00,,,0.00,0,Wunderground v.1.15,2013-03-27 06:14:00,
2013-03-27 01:16:00,29.1,23.1,30.31,SE,138,1.0,2.0,78,0.00,,,0.00,0,Wunderground v.1.15,2013-03-27 06:16:00,
2013-03-27 01:17:00,29.1,23.1,30.31,SE,138,1.0,2.0,78,0.00,,,0.00,0,Wunderground v.1.15,2013-03-27 06:17:00,
2013-03-27 01:18:00,29.1,23.1,30.31,SE,138,0.0,2.0,78,0.00,,,0.00,0,Wunderground v.1.15,2013-03-27 06:18:00,
2013-03-27 01:19:00,29.1,23.1,30.31,SE,138,1.0,2.0,78,0.00,,,0.00,0,Wunderground v.1.15,2013-03-27 06:19:00,
2013-03-27 01:23:00,29.1,23.1,30.31,SE,134,1.0,2.0,78,0.00,,,0.00,0,Wunderground v.1.15,2013-03-27 06:23:00,
2013-03-27 01:25:00,29.0,23.0,30.31,SE,132,1.0,2.0,78,0.00,,,0.00,0,Wunderground v.1.15,2013-03-27 06:25:00,
2013-03-27 01:26:00,28.9,22.9,30.31,SE,132,0.0,2.0,78,0.00,,,0.00,0,Wunderground v.1.15,2013-03-27 06:26:00,
2013-03-27 01:28:00,28.9,22.9,30.31,SE,132,0.0,2.0,78,0.00,,,0.00,0,Wunderground v.1.15,2013-03-27 06:28:00,
2013-03-27 01:29:00,28.8,22.8,30.31,SE,132,0.0,2.0,78,0.00,,,0.00,0,Wunderground v.1.15,2013-03-27 06:29:00,
2013-03-27 01:33:00,28.4,22.7,30.31,SE,132,0.0,1.0,79,0.00,,,0.00,0,Wunderground v.1.15,2013-03-27 06:33:00,
2013-03-27 01:34:00,28.3,22.6,30.31,SE,132,0.0,1.0,79,0.00,,,0.00,0,Wunderground v.1.15,2013-03-27 06:34:00,
2013-03-27 01:35:00,28.1,22.7,30.31,SE,132,0.0,1.0,80,0.00,,,0.00,0,Wunderground v.1.15,2013-03-27 06:35:00,
2013-03-27 01:39:00,27.9,22.8,30.31,SE,132,0.0,1.0,81,0.00,,,0.00,0,Wunderground v.1.15,2013-03-27 06:39:00,
2013-03-27 01:41:00,28.0,22.9,30.31,SE,132,0.0,0.0,81,0.00,,,0.00,0,Wunderground v.1.15,2013-03-27 06:41:00,
2013-03-27 01:42:00,28.1,23.0,30.31,SE,132,0.0,0.0,81,0.00,,,0.00,0,Wunderground v.1.15,2013-03-27 06:42:00,
2013-03-27 01:44:00,28.2,23.4,30.31,SE,132,0.0,0.0,82,0.00,,,0.00,0,Wunderground v.1.15,2013-03-27 06:44:00,
2013-03-27 01:47:00,28.3,23.8,30.31,SE,132,2.0,2.0,83,0.00,,,0.00,0,Wunderground v.1.15,2013-03-27 06:47:00,
2013-03-27 01:50:00,28.3,24.1,30.31,SE,132,0.0,2.0,84,0.00,,,0.00,0,Wunderground v.1.15,2013-03-27 06:50:00,
2013-03-27 01:52:00,28.2,24.3,30.31,SE,132,0.0,1.0,85,0.00,,,0.00,0,Wunderground v.1.15,2013-03-27 06:52:00,
2013-03-27 01:53:00,28.1,24.2,30.31,SE,132,0.0,1.0,85,0.00,,,0.00,0,Wunderground v.1.15,2013-03-27 06:53:00,
2013-03-27 01:57:00,27.8,24.2,30.31,SE,132,0.0,1.0,86,0.00,,,0.00,0,Wunderground v.1.15,2013-03-27 06:57:00,
2013-03-27 01:59:00,27.8,24.4,30.31,SE,132,0.0,1.0,87,0.00,,,0.00,0,Wunderground v.1.15,2013-03-27 06:59:00,
2013-03-27 02:00:00,27.7,24.3,30.31,SE,132,0.0,0.0,87,0.00,,,0.00,0,Wunderground v.1.15,2013-03-27 07:00:00,
2013-03-27 02:03:00,27.7,24.6,30.31,SE,132,0.0,0.0,88,0.00,,,0.00,0,Wunderground v.1.15,2013-03-27 07:03:00,
2013-03-27 02:04:00,27.7,24.6,30.31,SE,132,0.0,0.0,88,0.00,,,0.00,0,Wunderground v.1.15,2013-03-27 07:04:00,
2013-03-27 02:06:00,27.8,24.7,30.31,SE,132,0.0,0.0,88,0.00,,,0.00,0,Wunderground v.1.15,2013-03-27 07:06:00,
2013-03-27 02:08:00,27.7,24.3,30.31,SE,132,0.0,0.0,87,0.00,,,0.00,0,Wunderground v.1.15,2013-03-27 07:08:00,
2013-03-27 02:10:00,27.6,24.2,30.31,SE,132,0.0,0.0,87,0.00,,,0.00,0,Wunderground v.1.15,2013-03-27 07:10:00,
2013-03-27 02:11:00,27.6,24.2,30.31,SE,132,0.0,1.0,87,0.00,,,0.00,0,Wunderground v.1.15,2013-03-27 07:11:00,
2013-03-27 02:12:00,27.6,24.0,30.31,SE,132,0.0,1.0,86,0.00,,,0.00,0,Wunderground v.1.15,2013-03-27 07:12:00,
2013-03-27 02:14:00,27.7,24.1,30.31,SE,132,0.0,1.0,86,0.00,,,0.00,0,Wunderground v.1.15,2013-03-27 07:14:00,
2013-03-27 02:16:00,27.9,24.3,30.30,SE,132,1.0,1.0,86,0.00,,,0.00,0,Wunderground v.1.15,2013-03-27 07:16:00,
2013-03-27 02:17:00,28.0,24.1,30.30,SE,132,0.0,1.0,85,0.00,,,0.00,0,Wunderground v.1.15,2013-03-27 07:17:00,
2013-03-27 02:18:00,28.1,24.2,30.30,SE,132,0.0,1.0,85,0.00,,,0.00,0,Wunderground v.1.15,2013-03-27 07:18:00,
2013-03-27 02:19:00,28.2,24.3,30.30,SE,132,0.0,1.0,85,0.00,,,0.00,0,Wunderground v.1.15,2013-03-27 07:19:00,
2013-03-27 02:21:00,28.3,24.4,30.30,SE,132,2.0,2.0,85,0.00,,,0.00,0,Wunderground v.1.15,2013-03-27 07:21:00,
2013-03-27 02:22:00,28.4,24.2,30.30,SE,132,0.0,2.0,84,0.00,,,0.00,0,Wunderground v.1.15,2013-03-27 07:22:00,
2013-03-27 02:24:00,28.4,24.2,30.30,SE,132,0.0,2.0,84,0.00,,,0.00,0,Wunderground v.1.15,2013-03-27 07:24:00,
2013-03-27 02:25:00,28.5,24.0,30.30,SE,132,0.0,2.0,83,0.00,,,0.00,0,Wunderground v.1.15,2013-03-27 07:25:00,
2013-03-27 02:27:00,28.6,24.1,30.30,SE,132,0.0,2.0,83,0.00,,,0.00,0,Wunderground v.1.15,2013-03-27 07:27:00,
2013-03-27 02:28:00,28.6,24.1,30.30,SE,132,0.0,2.0,83,0.00,,,0.00,0,Wunderground v.1.15,2013-03-27 07:28:00,
2013-03-27 02:30:00,28.7,24.2,30.30,SE,132,3.0,3.0,83,0.00,,,0.00,0,Wunderground v.1.15,2013-03-27 07:30:00,
2013-03-27 02:32:00,28.8,24.0,30.30,SE,132,2.0,3.0,82,0.00,,,0.00,0,Wunderground v.1.15,2013-03-27 07:32:00,
2013-03-27 02:35:00,28.8,24.0,30.30,SE,132,1.0,3.0,82,0.00,,,0.00,0,Wunderground v.1.15,2013-03-27 07:35:00,
2013-03-27 02:37:00,28.8,24.0,30.29,SE,132,1.0,3.0,82,0.00,,,0.00,0,Wunderground v.1.15,2013-03-27 07:37:00,
2013-03-27 02:41:00,28.7,24.2,30.29,SE,132,1.0,2.0,83,0.00,,,0.00,0,Wunderground v.1.15,2013-03-27 07:41:00,
2013-03-27 02:42:00,28.7,24.2,30.30,SE,132,0.0,2.0,83,0.00,,,0.00,0,Wunderground v.1.15,2013-03-27 07:42:00,
2013-03-27 02:43:00,28.7,24.5,30.30,SE,132,0.0,2.0,84,0.00,,,0.00,0,Wunderground v.1.15,2013-03-27 07:43:00,
2013-03-27 02:46:00,28.5,24.3,30.30,SE,132,0.0,2.0,84,0.00,,,0.00,0,Wunderground v.1.15,2013-03-27 07:46:00,
2013-03-27 02:47:00,28.5,24.3,30.29,SE,132,1.0,2.0,84,0.00,,,0.00,0,Wunderground v.1.15,2013-03-27 07:47:00,
2013-03-27 02:48:00,28.4,24.2,30.30,SE,132,1.0,2.0,84,0.00,,,0.00,0,Wunderground v.1.15,2013-03-27 07:48:00,
2013-03-27 02:52:00,28.4,24.2,30.29,SE,132,0.0,1.0,84,0.00,,,0.00,0,Wunderground v.1.15,2013-03-27 07:52:00,
2013-03-27 02:53:00,28.4,24.2,30.30,SE,132,0.0,1.0,84,0.00,,,0.00,0,Wunderground v.1.15,2013-03-27 07:53:00,
2013-03-27 02:54:00,28.4,24.2,30.30,SE,132,0.0,1.0,84,0.00,,,0.00,0,Wunderground v.1.15,2013-03-27 07:54:00,
2013-03-27 02:55:00,28.3,24.1,30.29,SE,132,0.0,1.0,84,0.00,,,0.00,0,Wunderground v.1.15,2013-03-27 07:55:00,
2013-03-27 02:57:00,28.3,24.1,30.30,SE,132,0.0,1.0,84,0.00,,,0.00,0,Wunderground v.1.15,2013-03-27 07:57:00,
2013-03-27 02:59:00,28.3,24.1,30.30,SE,132,0.0,1.0,84,0.00,,,0.00,0,Wunderground v.1.15,2013-03-27 07:59:00,
2013-03-27 03:01:00,28.2,24.0,30.30,SE,132,0.0,0.0,84,0.00,,,0.00,0,Wunderground v.1.15,2013-03-27 08:01:00,
2013-03-27 03:03:00,28.2,24.0,30.30,SE,132,0.0,0.0,84,0.00,,,0.00,0,Wunderground v.1.15,2013-03-27 08:03:00,
2013-03-27 03:05:00,28.1,23.9,30.30,SE,132,0.0,0.0,84,0.00,,,0.00,0,Wunderground v.1.15,2013-03-27 08:05:00,
2013-03-27 03:08:00,28.1,24.2,30.30,SE,132,0.0,0.0,85,0.00,,,0.00,0,Wunderground v.1.15,2013-03-27 08:08:00,
2013-03-27 03:10:00,28.0,24.1,30.30,SE,132,0.0,0.0,85,0.00,,,0.00,0,Wunderground v.1.15,2013-03-27 08:10:00,
2013-03-27 03:11:00,28.0,24.1,30.30,SE,132,0.0,0.0,85,0.00,,,0.00,0,Wunderground v.1.15,2013-03-27 08:11:00,
2013-03-27 03:15:00,27.7,23.8,30.30,SE,132,0.0,0.0,85,0.00,,,0.00,0,Wunderground v.1.15,2013-03-27 08:15:00,
2013-03-27 03:16:00,27.6,24.0,30.30,SE,132,0.0,0.0,86,0.00,,,0.00,0,Wunderground v.1.15,2013-03-27 08:16:00,
2013-03-27 03:20:00,27.6,24.0,30.30,SE,132,0.0,0.0,86,0.00,,,0.00,0,Wunderground v.1.15,2013-03-27 08:20:00,
2013-03-27 03:21:00,27.6,24.0,30.30,SE,132,0.0,0.0,86,0.00,,,0.00,0,Wunderground v.1.15,2013-03-27 08:21:00,
2013-03-27 03:22:00,27.6,24.0,30.30,SE,132,0.0,0.0,86,0.00,,,0.00,0,Wunderground v.1.15,2013-03-27 08:22:00,
2013-03-27 03:23:00,27.5,23.6,30.30,SE,132,0.0,0.0,85,0.00,,,0.00,0,Wunderground v.1.15,2013-03-27 08:23:00,
2013-03-27 03:26:00,27.5,23.6,30.30,SE,132,2.0,2.0,85,0.00,,,0.00,0,Wunderground v.1.15,2013-03-27 08:26:00,
2013-03-27 03:28:00,27.6,23.7,30.30,SE,132,2.0,2.0,85,0.00,,,0.00,0,Wunderground v.1.15,2013-03-27 08:28:00,
2013-03-27 03:29:00,27.6,23.7,30.30,SE,132,2.0,2.0,85,0.00,,,0.00,0,Wunderground v.1.15,2013-03-27 08:29:00,
2013-03-27 03:31:00,27.7,23.5,30.30,SE,132,2.0,2.0,84,0.00,,,0.00,0,Wunderground v.1.15,2013-03-27 08:31:00,
2013-03-27 03:33:00,27.8,23.6,30.29,SE,132,1.0,2.0,84,0.00,,,0.00,0,Wunderground v.1.15,2013-03-27 08:33:00,
2013-03-27 03:35:00,27.8,23.6,30.29,SE,132,1.0,2.0,84,0.00,,,0.00,0,Wunderground v.1.15,2013-03-27 08:35:00,
2013-03-27 03:37:00,27.9,23.7,30.29,SE,132,2.0,2.0,84,0.00,,,0.00,0,Wunderground v.1.15,2013-03-27 08:37:00,
2013-03-27 03:38:00,28.0,23.5,30.29,SE,134,3.0,4.0,83,0.00,,,0.00,0,Wunderground v.1.15,2013-03-27 08:38:00,
2013-03-27 03:41:00,28.1,23.6,30.29,SE,134,2.0,3.0,83,0.00,,,0.00,0,Wunderground v.1.15,2013-03-27 08:41:00,
2013-03-27 03:42:00,28.2,23.7,30.29,SE,134,2.0,3.0,83,0.00,,,0.00,0,Wunderground v.1.15,2013-03-27 08:42:00,
2013-03-27 03:45:00,28.3,23.8,30.29,SE,129,3.0,4.0,83,0.00,,,0.00,0,Wunderground v.1.15,2013-03-27 08:45:00,
2013-03-27 03:47:00,28.3,23.5,30.29,SE,130,2.0,4.0,82,0.00,,,0.00,0,Wunderground v.1.15,2013-03-27 08:47:00,
2013-03-27 03:49:00,28.4,23.9,30.29,SE,140,3.0,4.0,83,0.00,,,0.00,0,Wunderground v.1.15,2013-03-27 08:49:00,
2013-03-27 03:50:00,28.4,23.9,30.29,SE,140,2.0,3.0,83,0.00,,,0.00,0,Wunderground v.1.15,2013-03-27 08:50:00,
2013-03-27 03:53:00,28.3,24.1,30.29,SE,140,2.0,3.0,84,0.00,,,0.00,0,Wunderground v.1.15,2013-03-27 08:53:00,
2013-03-27 03:54:00,28.3,24.1,30.29,SE,140,2.0,3.0,84,0.00,,,0.00,0,Wunderground v.1.15,2013-03-27 08:54:00,
2013-03-27 03:55:00,28.2,24.0,30.29,SE,140,3.0,3.0,84,0.00,,,0.00,0,Wunderground v.1.15,2013-03-27 08:55:00,
2013-03-27 03:57:00,28.2,24.3,30.29,SE,140,3.0,3.0,85,0.00,,,0.00,0,Wunderground v.1.15,2013-03-27 08:57:00,
2013-03-27 03:59:00,28.1,24.2,30.29,SE,140,3.0,3.0,85,0.00,,,0.00,0,Wunderground v.1.15,2013-03-27 08:59:00,
2013-03-27 04:00:00,28.1,24.2,30.29,SE,140,3.0,3.0,85,0.00,,,0.00,0,Wunderground v.1.15,2013-03-27 09:00:00,
2013-03-27 04:01:00,28.0,24.1,30.29,SE,140,2.0,3.0,85,0.00,,,0.00,0,Wunderground v.1.15,2013-03-27 09:01:00,
2013-03-27 04:02:00,28.0,24.1,30.29,SE,140,3.0,3.0,85,0.00,,,0.00,0,Wunderground v.1.15,2013-03-27 09:02:00,
2013-03-27 04:04:00,27.9,24.0,30.29,SE,140,3.0,3.0,85,0.00,,,0.00,0,Wunderground v.1.15,2013-03-27 09:04:00,
2013-03-27 04:07:00,27.8,23.9,30.29,SE,140,2.0,3.0,85,0.00,,,0.00,0,Wunderground v.1.15,2013-03-27 09:07:00,
2013-03-27 04:09:00,27.6,24.0,30.29,SE,140,2.0,3.0,86,0.00,,,0.00,0,Wunderground v.1.15,2013-03-27 09:09:00,
2013-03-27 04:10:00,27.6,24.0,30.29,SE,140,1.0,3.0,86,0.00,,,0.00,0,Wunderground v.1.15,2013-03-27 09:10:00,
2013-03-27 04:13:00,27.4,23.8,30.29,SE,140,2.0,2.0,86,0.00,,,0.00,0,Wunderground v.1.15,2013-03-27 09:13:00,
2013-03-27 04:15:00,27.4,23.8,30.29,SE,140,3.0,3.0,86,0.00,,,0.00,0,Wunderground v.1.15,2013-03-27 09:15:00,
2013-03-27 04:16:00,27.3,23.7,30.29,SE,140,2.0,3.0,86,0.00,,,0.00,0,Wunderground v.1.15,2013-03-27 09:16:00,
2013-03-27 04:19:00,27.2,23.6,30.29,SE,140,2.0,3.0,86,0.00,,,0.00,0,Wunderground v.1.15,2013-03-27 09:19:00,
2013-03-27 04:20:00,27.2,23.6,30.29,SE,140,3.0,3.0,86,0.00,,,0.00,0,Wunderground v.1.15,2013-03-27 09:20:00,
2013-03-27 04:22:00,27.1,23.5,30.29,SE,140,1.0,3.0,86,0.00,,,0.00,0,Wunderground v.1.15,2013-03-27 09:22:00,
2013-03-27 04:23:00,27.0,23.6,30.29,SE,140,1.0,3.0,87,0.00,,,0.00,0,Wunderground v.1.15,2013-03-27 09:23:00,
2013-03-27 04:25:00,27.0,23.6,30.29,SE,140,1.0,3.0,87,0.00,,,0.00,0,Wunderground v.1.15,2013-03-27 09:25:00,
2013-03-27 04:28:00,26.9,23.5,30.29,SE,140,0.0,3.0,87,0.00,,,0.00,0,Wunderground v.1.15,2013-03-27 09:28:00,
2013-03-27 04:29:00,26.9,23.5,30.29,SE,140,0.0,3.0,87,0.00,,,0.00,0,Wunderground v.1.15,2013-03-27 09:29:00,
2013-03-27 04:30:00,26.9,23.5,30.29,SE,140,1.0,1.0,87,0.00,,,0.00,0,Wunderground v.1.15,2013-03-27 09:30:00,
2013-03-27 04:31:00,26.8,23.4,30.29,SE,140,1.0,1.0,87,0.00,,,0.00,0,Wunderground v.1.15,2013-03-27 09:31:00,
2013-03-27 04:34:00,26.6,23.3,30.28,SE,140,1.0,3.0,87,0.00,,,0.00,0,Wunderground v.1.15,2013-03-27 09:34:00,
2013-03-27 04:36:00,26.6,23.5,30.28,SE,140,0.0,3.0,88,0.00,,,0.00,0,Wunderground v.1.15,2013-03-27 09:36:00,
2013-03-27 04:38:00,26.5,23.4,30.29,SE,140,0.0,3.0,88,0.00,,,0.00,0,Wunderground v.1.15,2013-03-27 09:38:00,
2013-03-27 04:39:00,26.5,23.4,30.29,SE,140,0.0,3.0,88,0.00,,,0.00,0,Wunderground v.1.15,2013-03-27 09:39:00,
2013-03-27 04:40:00,26.5,23.4,30.29,SE,140,0.0,1.0,88,0.00,,,0.00,0,Wunderground v.1.15,2013-03-27 09:40:00,
2013-03-27 04:41:00,26.5,23.4,30.29,SE,140,0.0,1.0,88,0.00,,,0.00,0,Wunderground v.1.15,2013-03-27 09:41:00,
2013-03-27 04:43:00,26.3,23.2,30.29,SE,140,0.0,2.0,88,0.00,,,0.00,0,Wunderground v.1.15,2013-03-27 09:43:00,
2013-03-27 04:45:00,26.3,23.2,30.29,SE,140,2.0,2.0,88,0.00,,,0.00,0,Wunderground v.1.15,2013-03-27 09:45:00,
2013-03-27 04:46:00,26.3,23.2,30.29,SE,140,1.0,2.0,88,0.00,,,0.00,0,Wunderground v.1.15,2013-03-27 09:46:00,
2013-03-27 04:49:00,26.3,23.2,30.29,SE,140,0.0,2.0,88,0.00,,,0.00,0,Wunderground v.1.15,2013-03-27 09:49:00,
2013-03-27 04:52:00,26.3,23.2,30.29,SE,140,0.0,0.0,88,0.00,,,0.00,0,Wunderground v.1.15,2013-03-27 09:52:00,
2013-03-27 04:53:00,26.3,23.2,30.29,SE,140,0.0,0.0,88,0.00,,,0.00,0,Wunderground v.1.15,2013-03-27 09:53:00,
2013-03-27 04:54:00,26.3,23.2,30.29,SE,140,0.0,0.0,88,0.00,,,0.00,0,Wunderground v.1.15,2013-03-27 09:54:00,
2013-03-27 04:59:00,26.2,23.1,30.29,SE,140,0.0,0.0,88,0.00,,,0.00,0,Wunderground v.1.15,2013-03-27 09:59:00,
2013-03-27 05:02:00,26.0,22.9,30.29,SE,140,0.0,0.0,88,0.00,,,0.00,0,Wunderground v.1.15,2013-03-27 10:02:00,
2013-03-27 05:03:00,26.0,22.9,30.29,SE,140,0.0,0.0,88,0.00,,,0.00,0,Wunderground v.1.15,2013-03-27 10:03:00,
2013-03-27 05:04:00,25.8,22.7,30.30,SE,140,0.0,0.0,88,0.00,,,0.00,0,Wunderground v.1.15,2013-03-27 10:04:00,
2013-03-27 05:05:00,25.7,22.6,30.29,SE,140,0.0,0.0,88,0.00,,,0.00,0,Wunderground v.1.15,2013-03-27 10:05:00,
2013-03-27 05:07:00,25.6,22.8,30.30,SE,140,0.0,0.0,89,0.00,,,0.00,0,Wunderground v.1.15,2013-03-27 10:07:00,
2013-03-27 05:08:00,25.6,22.8,30.30,SE,140,0.0,0.0,89,0.00,,,0.00,0,Wunderground v.1.15,2013-03-27 10:08:00,
2013-03-27 05:09:00,25.5,22.7,30.30,SE,140,0.0,0.0,89,0.00,,,0.00,0,Wunderground v.1.15,2013-03-27 10:09:00,
2013-03-27 05:10:00,25.5,22.7,30.30,SE,140,0.0,0.0,89,0.00,,,0.00,0,Wunderground v.1.15,2013-03-27 10:10:00,
2013-03-27 05:12:00,25.5,22.7,30.30,SE,140,0.0,0.0,89,0.00,,,0.00,0,Wunderground v.1.15,2013-03-27 10:12:00,
2013-03-27 05:14:00,25.4,22.6,30.30,SE,140,0.0,0.0,89,0.00,,,0.00,0,Wunderground v.1.15,2013-03-27 10:14:00,
2013-03-27 05:15:00,25.4,22.6,30.30,SE,140,0.0,0.0,89,0.00,,,0.00,0,Wunderground v.1.15,2013-03-27 10:15:00,
2013-03-27 05:17:00,25.3,22.5,30.30,SE,140,0.0,0.0,89,0.00,,,0.00,0,Wunderground v.1.15,2013-03-27 10:17:00,
2013-03-27 05:19:00,25.3,22.5,30.30,SE,140,0.0,0.0,89,0.00,,,0.00,0,Wunderground v.1.15,2013-03-27 10:19:00,
2013-03-27 05:21:00,25.2,22.4,30.30,SE,140,0.0,0.0,89,0.00,,,0.00,0,Wunderground v.1.15,2013-03-27 10:21:00,
2013-03-27 05:22:00,25.2,22.4,30.30,SE,140,0.0,0.0,89,0.00,,,0.00,0,Wunderground v.1.15,2013-03-27 10:22:00,
2013-03-27 05:23:00,25.3,22.5,30.30,SE,140,0.0,0.0,89,0.00,,,0.00,0,Wunderground v.1.15,2013-03-27 10:23:00,
2013-03-27 05:25:00,25.3,22.5,30.30,SE,140,0.0,0.0,89,0.00,,,0.00,0,Wunderground v.1.15,2013-03-27 10:25:00,
2013-03-27 05:27:00,25.2,22.4,30.30,SE,140,0.0,0.0,89,0.00,,,0.00,0,Wunderground v.1.15,2013-03-27 10:27:00,
2013-03-27 05:30:00,25.1,22.3,30.30,SE,140,0.0,0.0,89,0.00,,,0.00,0,Wunderground v.1.15,2013-03-27 10:30:00,
2013-03-27 05:31:00,25.1,22.3,30.30,SE,141,0.0,0.0,89,0.00,,,0.00,0,Wunderground v.1.15,2013-03-27 10:31:00,
2013-03-27 05:32:00,25.1,22.3,30.30,SE,140,0.0,0.0,89,0.00,,,0.00,0,Wunderground v.1.15,2013-03-27 10:32:00,
2013-03-27 05:34:00,25.1,22.3,30.30,SE,140,0.0,0.0,89,0.00,,,0.00,0,Wunderground v.1.15,2013-03-27 10:34:00,
2013-03-27 05:35:00,25.0,22.2,30.30,SE,140,0.0,0.0,89,0.00,,,0.00,0,Wunderground v.1.15,2013-03-27 10:35:00,
2013-03-27 05:38:00,24.8,22.0,30.30,SE,140,0.0,0.0,89,0.00,,,0.00,0,Wunderground v.1.15,2013-03-27 10:38:00,
2013-03-27 05:39:00,24.7,21.9,30.30,SE,140,0.0,0.0,89,0.00,,,0.00,0,Wunderground v.1.15,2013-03-27 10:39:00,
2013-03-27 05:43:00,24.7,22.2,30.29,SE,140,0.0,2.0,90,0.00,,,0.00,0,Wunderground v.1.15,2013-03-27 10:43:00,
2013-03-27 05:44:00,24.7,21.9,30.29,SE,140,0.0,2.0,89,0.00,,,0.00,0,Wunderground v.1.15,2013-03-27 10:44:00,
2013-03-27 05:48:00,25.0,22.5,30.29,SE,140,1.0,2.0,90,0.00,,,0.00,0,Wunderground v.1.15,2013-03-27 10:48:00,
2013-03-27 05:49:00,25.1,22.6,30.29,SE,140,1.0,2.0,90,0.00,,,0.00,0,Wunderground v.1.15,2013-03-27 10:49:00,
2013-03-27 05:50:00,25.2,22.4,30.29,SE,140,1.0,2.0,89,0.00,,,0.00,0,Wunderground v.1.15,2013-03-27 10:50:00,
2013-03-27 05:53:00,25.5,22.7,30.29,SE,140,1.0,1.0,89,0.00,,,0.00,0,Wunderground v.1.15,2013-03-27 10:53:00,
2013-03-27 05:54:00,25.5,22.4,30.29,SE,140,1.0,1.0,88,0.00,,,0.00,0,Wunderground v.1.15,2013-03-27 10:54:00,
2013-03-27 05:55:00,25.6,22.5,30.29,SE,140,1.0,1.0,88,0.00,,,0.00,0,Wunderground v.1.15,2013-03-27 10:55:00,
2013-03-27 05:59:00,25.7,22.6,30.29,SE,140,1.0,1.0,88,0.00,,,0.00,0,Wunderground v.1.15,2013-03-27 10:59:00,
2013-03-27 06:00:00,25.6,22.3,30.29,SE,140,0.0,1.0,87,0.00,,,0.00,0,Wunderground v.1.15,2013-03-27 11:00:00,
2013-03-27 06:02:00,25.3,21.7,30.29,SE,140,0.0,1.0,86,0.00,,,0.00,0,Wunderground v.1.15,2013-03-27 11:02:00,
2013-03-27 06:04:00,24.7,21.1,30.29,SE,140,0.0,1.0,86,0.00,,,0.00,0,Wunderground v.1.15,2013-03-27 11:04:00,
2013-03-27 06:07:00,24.3,21.0,30.29,SE,140,0.0,1.0,87,0.00,,,0.00,0,Wunderground v.1.15,2013-03-27 11:07:00,
2013-03-27 06:10:00,24.2,21.2,30.29,SE,140,0.0,0.0,88,0.00,,,0.00,0,Wunderground v.1.15,2013-03-27 11:10:00,
2013-03-27 06:12:00,24.1,21.1,30.29,SE,140,0.0,0.0,88,0.00,,,0.00,0,Wunderground v.1.15,2013-03-27 11:12:00,
2013-03-27 06:17:00,24.4,21.6,30.30,SE,140,0.0,0.0,89,0.00,,,0.00,0,Wunderground v.1.15,2013-03-27 11:17:00,
2013-03-27 06:18:00,24.5,21.7,30.30,SE,140,0.0,0.0,89,0.00,,,0.00,0,Wunderground v.1.15,2013-03-27 11:18:00,
2013-03-27 06:21:00,24.6,21.8,30.30,SE,140,0.0,0.0,89,0.00,,,0.00,0,Wunderground v.1.15,2013-03-27 11:21:00,
2013-03-27 06:23:00,24.6,21.8,30.30,SE,140,0.0,0.0,89,0.00,,,0.00,0,Wunderground v.1.15,2013-03-27 11:23:00,
2013-03-27 06:24:00,24.6,21.8,30.30,SE,140,0.0,0.0,89,0.00,,,0.00,0,Wunderground v.1.15,2013-03-27 11:24:00,
2013-03-27 06:26:00,24.6,21.8,30.30,SE,140,0.0,0.0,89,0.00,,,0.00,0,Wunderground v.1.15,2013-03-27 11:26:00,
2013-03-27 06:29:00,24.6,21.8,30.29,SE,140,0.0,0.0,89,0.00,,,0.00,0,Wunderground v.1.15,2013-03-27 11:29:00,
2013-03-27 06:30:00,24.6,21.8,30.29,SE,140,0.0,0.0,89,0.00,,,0.00,0,Wunderground v.1.15,2013-03-27 11:30:00,
2013-03-27 06:31:00,24.5,21.7,30.29,SE,140,0.0,2.0,89,0.00,,,0.00,0,Wunderground v.1.15,2013-03-27 11:31:00,
2013-03-27 06:34:00,24.3,21.3,30.29,SE,140,2.0,2.0,88,0.00,,,0.00,0,Wunderground v.1.15,2013-03-27 11:34:00,
2013-03-27 06:35:00,24.3,21.3,30.29,SE,140,1.0,2.0,88,0.00,,,0.00,0,Wunderground v.1.15,2013-03-27 11:35:00,
2013-03-27 06:37:00,24.7,21.9,30.29,SE,140,1.0,2.0,89,0.00,,,0.00,0,Wunderground v.1.15,2013-03-27 11:37:00,
2013-03-27 06:39:00,25.2,22.4,30.29,SE,140,1.0,2.0,89,0.00,,,0.00,0,Wunderground v.1.15,2013-03-27 11:39:00,
2013-03-27 06:42:00,25.4,22.3,30.29,SE,140,1.0,2.0,88,0.00,,,0.00,0,Wunderground v.1.15,2013-03-27 11:42:00,
2013-03-27 06:44:00,25.5,22.4,30.29,SE,140,0.0,2.0,88,0.00,,,0.00,0,Wunderground v.1.15,2013-03-27 11:44:00,
2013-03-27 06:45:00,25.4,22.1,30.29,SE,140,0.0,2.0,87,0.00,,,0.00,0,Wunderground v.1.15,2013-03-27 11:45:00,
2013-03-27 06:47:00,25.4,22.1,30.29,SE,140,0.0,2.0,87,0.00,,,0.00,0,Wunderground v.1.15,2013-03-27 11:47:00,
2013-03-27 06:48:00,25.4,22.3,30.29,SE,140,0.0,2.0,88,0.00,,,0.00,0,Wunderground v.1.15,2013-03-27 11:48:00,
2013-03-27 06:49:00,25.5,22.2,30.29,SE,140,0.0,2.0,87,0.00,,,0.00,0,Wunderground v.1.15,2013-03-27 11:49:00,
2013-03-27 06:53:00,25.2,21.9,30.29,SE,140,0.0,0.0,87,0.00,,,0.00,0,Wunderground v.1.15,2013-03-27 11:53:00,
2013-03-27 06:55:00,25.3,22.2,30.29,SE,140,0.0,0.0,88,0.00,,,0.00,0,Wunderground v.1.15,2013-03-27 11:55:00,
2013-03-27 06:58:00,25.3,22.2,30.29,SE,140,0.0,0.0,88,0.00,,,0.00,0,Wunderground v.1.15,2013-03-27 11:58:00,
2013-03-27 06:59:00,25.3,22.2,30.29,SE,140,0.0,0.0,88,0.00,,,0.00,0,Wunderground v.1.15,2013-03-27 11:59:00,
2013-03-27 07:01:00,25.3,22.2,30.29,SE,140,1.0,1.0,88,0.00,,,0.00,0,Wunderground v.1.15,2013-03-27 12:01:00,
2013-03-27 07:04:00,25.2,22.1,30.30,SE,140,0.0,1.0,88,0.00,,,0.00,0,Wunderground v.1.15,2013-03-27 12:04:00,
2013-03-27 07:07:00,25.2,22.1,30.30,SE,140,2.0,2.0,88,0.00,,,0.00,5,Wunderground v.1.15,2013-03-27 12:07:00,
2013-03-27 07:08:00,25.2,22.1,30.30,SE,140,2.0,2.0,88,0.00,,,0.00,5,Wunderground v.1.15,2013-03-27 12:08:00,
2013-03-27 07:10:00,25.2,22.1,30.30,SE,140,0.0,2.0,88,0.00,,,0.00,7,Wunderground v.1.15,2013-03-27 12:10:00,
2013-03-27 07:12:00,25.1,21.8,30.30,SE,140,0.0,1.0,87,0.00,,,0.00,7,Wunderground v.1.15,2013-03-27 12:12:00,
2013-03-27 07:13:00,24.9,21.6,30.30,SE,140,0.0,1.0,87,0.00,,,0.00,11,Wunderground v.1.15,2013-03-27 12:13:00,
2013-03-27 07:14:00,24.8,21.5,30.30,SE,140,0.0,1.0,87,0.00,,,0.00,11,Wunderground v.1.15,2013-03-27 12:14:00,
2013-03-27 07:15:00,24.7,21.4,30.30,SE,140,0.0,1.0,87,0.00,,,0.00,11,Wunderground v.1.15,2013-03-27 12:15:00,
2013-03-27 07:17:00,24.6,21.3,30.30,SE,140,0.0,1.0,87,0.00,,,0.00,12,Wunderground v.1.15,2013-03-27 12:17:00,
2013-03-27 07:18:00,24.5,21.5,30.31,SE,140,0.0,1.0,88,0.00,,,0.00,14,Wunderground v.1.15,2013-03-27 12:18:00,
2013-03-27 07:20:00,24.5,21.5,30.31,SE,140,0.0,1.0,88,0.00,,,0.00,14,Wunderground v.1.15,2013-03-27 12:20:00,
2013-03-27 07:23:00,24.6,21.8,30.31,SE,140,0.0,0.0,89,0.00,,,0.00,18,Wunderground v.1.15,2013-03-27 12:23:00,
2013-03-27 07:24:00,24.6,21.6,30.31,SE,140,0.0,0.0,88,0.00,,,0.00,19,Wunderground v.1.15,2013-03-27 12:24:00,
2013-03-27 07:26:00,24.8,22.0,30.31,SE,140,0.0,0.0,89,0.00,,,0.00,19,Wunderground v.1.15,2013-03-27 12:26:00,
2013-03-27 07:28:00,24.9,22.1,30.31,SE,140,0.0,0.0,89,0.00,,,0.00,21,Wunderground v.1.15,2013-03-27 12:28:00,
2013-03-27 07:29:00,25.0,22.2,30.31,SE,140,0.0,0.0,89,0.00,,,0.00,23,Wunderground v.1.15,2013-03-27 12:29:00,
2013-03-27 07:32:00,25.2,22.4,30.31,SE,140,0.0,0.0,89,0.00,,,0.00,26,Wunderground v.1.15,2013-03-27 12:32:00,
2013-03-27 07:34:00,25.2,22.4,30.31,SE,140,0.0,0.0,89,0.00,,,0.00,28,Wunderground v.1.15,2013-03-27 12:34:00,
2013-03-27 07:35:00,25.3,22.5,30.31,SE,140,0.0,0.0,89,0.00,,,0.00,30,Wunderground v.1.15,2013-03-27 12:35:00,
2013-03-27 07:38:00,25.4,22.6,30.31,SE,140,0.0,0.0,89,0.00,,,0.00,33,Wunderground v.1.15,2013-03-27 12:38:00,
2013-03-27 07:40:00,25.4,22.6,30.31,SE,140,0.0,0.0,89,0.00,,,0.00,37,Wunderground v.1.15,2013-03-27 12:40:00,
2013-03-27 07:43:00,25.6,22.5,30.31,SE,140,1.0,2.0,88,0.00,,,0.00,44,Wunderground v.1.15,2013-03-27 12:43:00,
2013-03-27 07:46:00,25.7,22.6,30.31,SE,140,0.0,2.0,88,0.00,,,0.00,51,Wunderground v.1.15,2013-03-27 12:46:00,
2013-03-27 07:49:00,25.6,22.5,30.31,SE,140,0.0,2.0,88,0.00,,,0.00,60,Wunderground v.1.15,2013-03-27 12:49:00,
2013-03-27 07:51:00,25.8,22.7,30.31,SE,140,1.0,1.0,88,0.00,,,0.00,67,Wunderground v.1.15,2013-03-27 12:51:00,
2013-03-27 07:52:00,26.0,23.2,30.31,SE,140,2.0,2.0,89,0.00,,,0.00,69,Wunderground v.1.15,2013-03-27 12:52:00,
2013-03-27 07:54:00,26.4,23.3,30.31,SE,140,1.0,2.0,88,0.00,,,0.00,72,Wunderground v.1.15,2013-03-27 12:54:00,
2013-03-27 07:57:00,26.8,24.0,30.31,SE,140,2.0,3.0,89,0.00,,,0.00,83,Wunderground v.1.15,2013-03-27 12:57:00,
2013-03-27 07:58:00,26.9,23.8,30.32,SE,140,1.0,3.0,88,0.00,,,0.00,83,Wunderground v.1.15,2013-03-27 12:58:00,
2013-03-27 07:59:00,26.9,23.8,30.31,SE,140,1.0,3.0,88,0.00,,,0.00,88,Wunderground v.1.15,2013-03-27 12:59:00,
2013-03-27 08:00:00,27.0,23.9,30.31,SE,140,2.0,2.0,88,0.00,,,0.00,91,Wunderground v.1.15,2013-03-27 13:00:00,
2013-03-27 08:03:00,27.2,23.8,30.31,SE,140,2.0,3.0,87,0.00,,,0.00,104,Wunderground v.1.15,2013-03-27 13:03:00,
2013-03-27 08:04:00,27.2,23.8,30.32,SE,140,2.0,3.0,87,0.00,,,0.00,105,Wunderground v.1.15,2013-03-27 13:04:00,
2013-03-27 08:05:00,27.2,24.1,30.32,SE,140,2.0,3.0,88,0.00,,,0.00,109,Wunderground v.1.15,2013-03-27 13:05:00,
2013-03-27 08:08:00,27.4,24.0,30.32,SE,140,1.0,3.0,87,0.00,,,0.00,118,Wunderground v.1.15,2013-03-27 13:08:00,
2013-03-27 08:09:00,27.4,24.0,30.32,SE,140,3.0,3.0,87,0.00,,,0.00,121,Wunderground v.1.15,2013-03-27 13:09:00,
2013-03-27 08:11:00,27.5,24.1,30.32,SE,140,3.0,3.0,87,0.00,,,0.00,130,Wunderground v.1.15,2013-03-27 13:11:00,
2013-03-27 08:12:00,27.6,24.5,30.32,SE,140,3.0,3.0,88,0.00,,,0.00,134,Wunderground v.1.15,2013-03-27 13:12:00,
2013-03-27 08:14:00,27.8,24.7,30.32,SE,141,1.0,4.0,88,0.00,,,0.00,141,Wunderground v.1.15,2013-03-27 13:14:00,
2013-03-27 08:15:00,28.0,24.9,30.32,SE,141,2.0,4.0,88,0.00,,,0.00,146,Wunderground v.1.15,2013-03-27 13:15:00,
2013-03-27 08:17:00,28.1,25.0,30.32,SE,141,2.0,4.0,88,0.00,,,0.00,149,Wunderground v.1.15,2013-03-27 13:17:00,
2013-03-27 08:18:00,28.2,25.1,30.32,SE,141,3.0,4.0,88,0.00,,,0.00,153,Wunderground v.1.15,2013-03-27 13:18:00,
2013-03-27 08:19:00,28.3,24.9,30.32,SE,141,3.0,4.0,87,0.00,,,0.00,160,Wunderground v.1.15,2013-03-27 13:19:00,
2013-03-27 08:22:00,28.4,25.0,30.32,SE,141,3.0,3.0,87,0.00,,,0.00,169,Wunderground v.1.15,2013-03-27 13:22:00,
2013-03-27 08:23:00,28.6,25.2,30.32,SE,141,4.0,4.0,87,0.00,,,0.00,174,Wunderground v.1.15,2013-03-27 13:23:00,
2013-03-27 08:25:00,28.6,25.2,30.32,SE,140,4.0,4.0,87,0.00,,,0.00,178,Wunderground v.1.15,2013-03-27 13:25:00,
2013-03-27 08:27:00,28.7,25.0,30.32,SE,141,4.0,5.0,86,0.00,,,0.00,188,Wunderground v.1.15,2013-03-27 13:27:00,
2013-03-27 08:28:00,28.8,25.4,30.32,SE,141,4.0,5.0,87,0.00,,,0.00,192,Wunderground v.1.15,2013-03-27 13:28:00,
2013-03-27 08:32:00,29.1,25.7,30.32,SE,144,3.0,4.0,87,0.00,,,0.00,206,Wunderground v.1.15,2013-03-27 13:32:00,
2013-03-27 08:34:00,29.4,26.0,30.32,SSE,151,4.0,4.0,87,0.00,,,0.00,214,Wunderground v.1.15,2013-03-27 13:34:00,
2013-03-27 08:38:00,29.6,25.9,30.32,SSE,152,4.0,4.0,86,0.00,,,0.00,227,Wunderground v.1.15,2013-03-27 13:38:00,
2013-03-27 08:39:00,29.7,26.0,30.32,SSE,152,4.0,4.0,86,0.00,,,0.00,227,Wunderground v.1.15,2013-03-27 13:39:00,
2013-03-27 08:42:00,29.8,26.1,30.32,SSE,152,3.0,3.0,86,0.00,,,0.00,237,Wunderground v.1.15,2013-03-27 13:42:00,
2013-03-27 08:43:00,30.0,26.3,30.32,SSE,152,3.0,3.0,86,0.00,,,0.00,244,Wunderground v.1.15,2013-03-27 13:43:00,
2013-03-27 08:45:00,30.1,26.4,30.32,SSE,152,2.0,4.0,86,0.00,,,0.00,250,Wunderground v.1.15,2013-03-27 13:45:00,
2013-03-27 08:47:00,30.3,26.6,30.32,SSE,152,3.0,4.0,86,0.00,,,0.00,255,Wunderground v.1.15,2013-03-27 13:47:00,
2013-03-27 08:50:00,30.7,26.4,30.32,SSE,152,2.0,2.0,84,0.00,,,0.00,267,Wunderground v.1.15,2013-03-27 13:50:00,
2013-03-27 08:51:00,30.7,26.4,30.32,SSE,152,2.0,3.0,84,0.00,,,0.00,271,Wunderground v.1.15,2013-03-27 13:51:00,
2013-03-27 08:52:00,30.8,26.8,30.32,SSE,152,1.0,3.0,85,0.00,,,0.00,274,Wunderground v.1.15,2013-03-27 13:52:00,
2013-03-27 08:57:00,31.2,26.6,30.32,SSE,152,2.0,4.0,83,0.00,,,0.00,290,Wunderground v.1.15,2013-03-27 13:57:00,
2013-03-27 08:58:00,31.3,26.7,30.32,SSE,152,3.0,4.0,83,0.00,,,0.00,294,Wunderground v.1.15,2013-03-27 13:58:00,
2013-03-27 09:03:00,31.8,27.2,30.32,SSE,155,4.0,4.0,83,0.00,,,0.00,309,Wunderground v.1.15,2013-03-27 14:03:00,
2013-03-27 09:05:00,31.9,27.3,30.32,SSE,156,4.0,4.0,83,0.00,,,0.00,318,Wunderground v.1.15,2013-03-27 14:05:00,
2013-03-27 09:08:00,32.1,27.8,30.32,SSE,157,2.0,5.0,84,0.00,,,0.00,329,Wunderground v.1.15,2013-03-27 14:08:00,
2013-03-27 09:10:00,32.1,28.1,30.32,SSE,159,4.0,4.0,85,0.00,,,0.00,334,Wunderground v.1.15,2013-03-27 14:10:00,
2013-03-27 09:14:00,31.9,27.3,30.32,SSE,167,3.0,5.0,83,0.00,,,0.00,345,Wunderground v.1.15,2013-03-27 14:14:00,
2013-03-27 09:15:00,31.8,27.5,30.32,South,175,3.0,5.0,84,0.00,,,0.00,350,Wunderground v.1.15,2013-03-27 14:15:00,
2013-03-27 09:16:00,31.8,27.5,30.32,South,173,3.0,5.0,84,0.00,,,0.00,350,Wunderground v.1.15,2013-03-27 14:16:00,
2013-03-27 09:17:00,31.9,27.9,30.32,SSE,161,4.0,5.0,85,0.00,,,0.00,357,Wunderground v.1.15,2013-03-27 14:17:00,
2013-03-27 09:20:00,31.8,27.5,30.32,SSE,157,4.0,6.0,84,0.00,,,0.00,364,Wunderground v.1.15,2013-03-27 14:20:00,
2013-03-27 09:21:00,31.8,27.5,30.32,SSE,157,2.0,4.0,84,0.00,,,0.00,369,Wunderground v.1.15,2013-03-27 14:21:00,
2013-03-27 09:22:00,31.9,27.6,30.32,SSE,157,0.0,4.0,84,0.00,,,0.00,369,Wunderground v.1.15,2013-03-27 14:22:00,
2013-03-27 09:24:00,32.0,27.7,30.32,SSE,158,2.0,4.0,84,0.00,,,0.00,378,Wunderground v.1.15,2013-03-27 14:24:00,
2013-03-27 09:25:00,32.1,27.8,30.32,SSE,163,2.0,4.0,84,0.00,,,0.00,383,Wunderground v.1.15,2013-03-27 14:25:00,
2013-03-27 09:26:00,32.1,27.8,30.32,SSE,163,2.0,4.0,84,0.00,,,0.00,387,Wunderground v.1.15,2013-03-27 14:26:00,
2013-03-27 09:29:00,32.4,27.8,30.32,SSE,165,4.0,4.0,83,0.00,,,0.00,394,Wunderground v.1.15,2013-03-27 14:29:00,
2013-03-27 09:32:00,32.6,28.3,30.32,South,182,4.0,4.0,84,0.00,,,0.00,403,Wunderground v.1.15,2013-03-27 14:32:00,
2013-03-27 09:36:00,33.0,27.8,30.32,South,169,4.0,5.0,81,0.00,,,0.00,415,Wunderground v.1.15,2013-03-27 14:36:00,
2013-03-27 09:37:00,33.0,27.8,30.32,SSE,163,4.0,6.0,81,0.00,,,0.00,420,Wunderground v.1.15,2013-03-27 14:37:00,
2013-03-27 09:42:00,33.3,28.4,30.33,South,189,4.0,4.0,82,0.00,,,0.00,434,Wunderground v.1.15,2013-03-27 14:42:00,
2013-03-27 09:45:00,33.5,28.6,30.33,South,180,2.0,4.0,82,0.00,,,0.00,445,Wunderground v.1.15,2013-03-27 14:45:00,
2013-03-27 09:47:00,33.7,28.8,30.32,South,174,1.0,4.0,82,0.00,,,0.00,450,Wunderground v.1.15,2013-03-27 14:47:00,
2013-03-27 09:48:00,33.9,29.3,30.32,South,174,2.0,4.0,83,0.00,,,0.00,455,Wunderground v.1.15,2013-03-27 14:48:00,
2013-03-27 09:52:00,34.1,28.6,30.33,SSE,167,0.0,3.0,80,0.00,,,0.00,468,Wunderground v.1.15,2013-03-27 14:52:00,
2013-03-27 09:53:00,34.0,28.5,30.33,SSE,167,1.0,3.0,80,0.00,,,0.00,471,Wunderground v.1.15,2013-03-27 14:53:00,
2013-03-27 09:54:00,34.1,28.6,30.32,SSE,167,2.0,3.0,80,0.00,,,0.00,473,Wunderground v.1.15,2013-03-27 14:54:00,
2013-03-27 09:58:00,34.4,28.9,30.33,South,186,3.0,4.0,80,0.00,,,0.00,489,Wunderground v.1.15,2013-03-27 14:58:00,
2013-03-27 09:59:00,34.4,28.6,30.32,South,188,5.0,5.0,79,0.00,,,0.00,490,Wunderground v.1.15,2013-03-27 14:59:00,
2013-03-27 10:01:00,34.4,28.6,30.32,South,182,2.0,3.0,79,0.00,,,0.00,496,Wunderground v.1.15,2013-03-27 15:01:00,
2013-03-27 10:04:00,34.6,29.1,30.32,South,191,5.0,6.0,80,0.00,,,0.00,506,Wunderground v.1.15,2013-03-27 15:04:00,
2013-03-27 10:05:00,34.7,29.5,30.33,South,190,5.0,6.0,81,0.00,,,0.00,508,Wunderground v.1.15,2013-03-27 15:05:00,
2013-03-27 10:06:00,34.9,29.4,30.33,South,184,3.0,6.0,80,0.00,,,0.00,513,Wunderground v.1.15,2013-03-27 15:06:00,
2013-03-27 10:10:00,35.3,29.7,30.33,SSW,192,4.0,4.0,80,0.00,,,0.00,520,Wunderground v.1.15,2013-03-27 15:10:00,
2013-03-27 10:11:00,35.4,29.5,30.33,South,182,5.0,5.0,79,0.00,,,0.00,522,Wunderground v.1.15,2013-03-27 15:11:00,
2013-03-27 10:13:00,35.3,29.4,30.33,SSW,194,4.0,5.0,79,0.00,,,0.00,527,Wunderground v.1.15,2013-03-27 15:13:00,
2013-03-27 10:15:00,35.3,29.1,30.33,South,181,3.0,8.0,78,0.00,,,0.00,534,Wunderground v.1.15,2013-03-27 15:15:00,
2013-03-27 10:17:00,35.4,29.8,30.33,South,179,4.0,8.0,80,0.00,,,0.00,538,Wunderground v.1.15,2013-03-27 15:17:00,
2013-03-27 10:18:00,35.5,29.3,30.32,South,186,5.0,8.0,78,0.00,,,0.00,543,Wunderground v.1.15,2013-03-27 15:18:00,
2013-03-27 10:20:00,35.5,29.6,30.32,South,186,5.0,5.0,79,0.00,,,0.00,543,Wunderground v.1.15,2013-03-27 15:20:00,
2013-03-27 10:24:00,35.7,29.2,30.32,South,170,3.0,6.0,77,0.00,,,0.00,557,Wunderground v.1.15,2013-03-27 15:24:00,
2013-03-27 10:25:00,35.7,29.2,30.32,South,183,6.0,6.0,77,0.00,,,0.00,557,Wunderground v.1.15,2013-03-27 15:25:00,
2013-03-27 10:26:00,35.9,29.4,30.32,SSW,199,7.0,7.0,77,0.00,,,0.00,566,Wunderground v.1.15,2013-03-27 15:26:00,
2013-03-27 10:31:00,36.0,28.8,30.33,SSW,198,8.0,8.0,75,0.00,,,0.00,577,Wunderground v.1.15,2013-03-27 15:31:00,
2013-03-27 10:32:00,36.1,29.6,30.33,SSW,199,6.0,8.0,77,0.00,,,0.00,578,Wunderground v.1.15,2013-03-27 15:32:00,
2013-03-27 10:33:00,36.2,29.7,30.33,SSW,195,9.0,9.0,77,0.00,,,0.00,582,Wunderground v.1.15,2013-03-27 15:33:00,
2013-03-27 10:37:00,36.4,30.2,30.32,SSW,198,7.0,9.0,78,0.00,,,0.00,591,Wunderground v.1.15,2013-03-27 15:37:00,
2013-03-27 10:38:00,36.6,30.4,30.32,SSW,207,7.0,9.0,78,0.00,,,0.00,594,Wunderground v.1.15,2013-03-27 15:38:00,
2013-03-27 10:43:00,37.0,30.1,30.32,SSW,194,7.0,7.0,76,0.00,,,0.00,606,Wunderground v.1.15,2013-03-27 15:43:00,
2013-03-27 10:44:00,37.1,30.2,30.32,SSW,196,7.0,7.0,76,0.00,,,0.00,612,Wunderground v.1.15,2013-03-27 15:44:00,
2013-03-27 10:49:00,37.2,30.3,30.32,SSW,199,7.0,9.0,76,0.00,,,0.00,622,Wunderground v.1.15,2013-03-27 15:49:00,
2013-03-27 10:50:00,37.2,30.7,30.32,SSW,211,7.0,7.0,77,0.00,,,0.00,624,Wunderground v.1.15,2013-03-27 15:50:00,
2013-03-27 10:51:00,37.2,30.0,30.32,South,188,6.0,8.0,75,0.00,,,0.00,628,Wunderground v.1.15,2013-03-27 15:51:00,
2013-03-27 10:52:00,37.1,29.9,30.32,SSW,197,7.0,8.0,75,0.00,,,0.00,631,Wunderground v.1.15,2013-03-27 15:52:00,
2013-03-27 10:55:00,37.2,30.3,30.32,South,184,6.0,8.0,76,0.00,,,0.00,636,Wunderground v.1.15,2013-03-27 15:55:00,
2013-03-27 10:57:00,37.1,29.9,30.32,South,171,7.0,8.0,75,0.00,,,0.00,638,Wunderground v.1.15,2013-03-27 15:57:00,
2013-03-27 10:58:00,37.2,30.7,30.32,South,177,8.0,8.0,77,0.00,,,0.00,640,Wunderground v.1.15,2013-03-27 15:58:00,
2013-03-27 11:00:00,37.4,29.5,30.32,SSE,160,6.0,7.0,73,0.00,,,0.00,652,Wunderground v.1.15,2013-03-27 16:00:00,
2013-03-27 11:01:00,37.4,29.5,30.32,SE,142,7.0,7.0,73,0.00,,,0.00,652,Wunderground v.1.15,2013-03-27 16:01:00,
2013-03-27 11:02:00,37.3,29.1,30.32,South,181,7.0,7.0,72,0.00,,,0.00,652,Wunderground v.1.15,2013-03-27 16:02:00,
2013-03-27 11:04:00,37.4,30.5,30.32,South,183,6.0,8.0,76,0.00,,,0.00,654,Wunderground v.1.15,2013-03-27 16:04:00,
2013-03-27 11:07:00,37.6,30.1,30.32,SE,146,7.0,9.0,74,0.00,,,0.00,663,Wunderground v.1.15,2013-03-27 16:07:00,
2013-03-27 11:08:00,37.6,30.4,30.32,SSE,156,9.0,10.0,75,0.00,,,0.00,668,Wunderground v.1.15,2013-03-27 16:08:00,
2013-03-27 11:10:00,37.5,30.3,30.32,SSE,163,7.0,10.0,75,0.00,,,0.00,670,Wunderground v.1.15,2013-03-27 16:10:00,
2013-03-27 11:12:00,37.4,29.5,30.33,SE,146,7.0,9.0,73,0.00,,,0.00,673,Wunderground v.1.15,2013-03-27 16:12:00,
2013-03-27 11:13:00,37.5,29.6,30.32,SSE,157,5.0,9.0,73,0.00,,,0.00,670,Wunderground v.1.15,2013-03-27 16:13:00,
2013-03-27 11:16:00,37.6,30.1,30.33,SE,144,4.0,9.0,74,0.00,,,0.00,677,Wunderground v.1.15,2013-03-27 16:16:00,
2013-03-27 11:18:00,37.7,30.2,30.32,SSE,162,5.0,9.0,74,0.00,,,0.00,680,Wunderground v.1.15,2013-03-27 16:18:00,
2013-03-27 11:20:00,38.0,30.4,30.32,SSE,158,7.0,9.0,74,0.00,,,0.00,687,Wunderground v.1.15,2013-03-27 16:20:00,
2013-03-27 11:21:00,38.4,31.5,30.32,SSE,156,8.0,8.0,76,0.00,,,0.00,691,Wunderground v.1.15,2013-03-27 16:21:00,
2013-03-27 11:24:00,38.1,29.2,30.32,SSE,160,7.0,8.0,70,0.00,,,0.00,698,Wunderground v.1.15,2013-03-27 16:24:00,
2013-03-27 11:25:00,38.0,29.4,30.32,SSE,162,9.0,9.0,71,0.00,,,0.00,705,Wunderground v.1.15,2013-03-27 16:25:00,
2013-03-27 11:26:00,37.9,30.0,30.32,SSE,157,4.0,9.0,73,0.00,,,0.00,705,Wunderground v.1.15,2013-03-27 16:26:00,
2013-03-27 11:29:00,38.2,30.0,30.32,SE,138,4.0,9.0,72,0.00,,,0.00,708,Wunderground v.1.15,2013-03-27 16:29:00,
2013-03-27 11:32:00,38.3,29.7,30.32,SSE,152,6.0,9.0,71,0.00,,,0.00,714,Wunderground v.1.15,2013-03-27 16:32:00,
2013-03-27 11:33:00,38.3,29.7,30.32,SSE,149,6.0,9.0,71,0.00,,,0.00,719,Wunderground v.1.15,2013-03-27 16:33:00,
2013-03-27 11:34:00,38.3,30.1,30.32,South,173,3.0,9.0,72,0.00,,,0.00,721,Wunderground v.1.15,2013-03-27 16:34:00,
2013-03-27 11:35:00,38.6,30.7,30.32,South,172,5.0,9.0,73,0.00,,,0.00,728,Wunderground v.1.15,2013-03-27 16:35:00,
2013-03-27 11:38:00,38.8,30.9,30.32,South,170,7.0,9.0,73,0.00,,,0.00,729,Wunderground v.1.15,2013-03-27 16:38:00,
2013-03-27 11:39:00,38.7,29.8,30.32,South,169,5.0,9.0,70,0.00,,,0.00,728,Wunderground v.1.15,2013-03-27 16:39:00,
2013-03-27 11:40:00,38.6,30.0,30.32,SE,130,3.0,6.0,71,0.00,,,0.00,726,Wunderground v.1.15,2013-03-27 16:40:00,
2013-03-27 11:42:00,38.6,29.7,30.32,SE,134,4.0,6.0,70,0.00,,,0.00,738,Wunderground v.1.15,2013-03-27 16:42:00,
2013-03-27 11:43:00,38.7,29.8,30.32,SE,139,10.0,10.0,70,0.00,,,0.00,738,Wunderground v.1.15,2013-03-27 16:43:00,
2013-03-27 11:44:00,38.7,29.8,30.32,SE,138,7.0,10.0,70,0.00,,,0.00,740,Wunderground v.1.15,2013-03-27 16:44:00,
2013-03-27 11:48:00,38.7,31.1,30.32,SE,127,3.0,10.0,74,0.00,,,0.00,747,Wunderground v.1.15,2013-03-27 16:48:00,
2013-03-27 11:49:00,38.7,29.8,30.32,SE,143,3.0,10.0,70,0.00,,,0.00,745,Wunderground v.1.15,2013-03-27 16:49:00,
2013-03-27 11:50:00,38.7,30.1,30.32,SSW,192,4.0,10.0,71,0.00,,,0.00,749,Wunderground v.1.15,2013-03-27 16:50:00,
2013-03-27 11:54:00,39.1,29.1,30.32,SSE,155,6.0,11.0,67,0.00,,,0.00,759,Wunderground v.1.15,2013-03-27 16:54:00,
2013-03-27 11:55:00,39.0,29.0,30.32,ESE,115,7.0,11.0,67,0.00,,,0.00,761,Wunderground v.1.15,2013-03-27 16:55:00,
2013-03-27 11:58:00,39.0,28.2,30.32,SSE,151,10.0,11.0,65,0.00,,,0.00,766,Wunderground v.1.15,2013-03-27 16:58:00,
2013-03-27 12:00:00,39.0,29.0,30.32,SSE,148,4.0,6.0,67,0.00,,,0.00,766,Wunderground v.1.15,2013-03-27 17:00:00,
2013-03-27 12:02:00,39.0,29.7,30.32,SE,142,8.0,9.0,69,0.00,,,0.00,768,Wunderground v.1.15,2013-03-27 17:02:00,
2013-03-27 12:05:00,38.6,28.6,30.32,SSE,161,4.0,9.0,67,0.00,,,0.00,773,Wunderground v.1.15,2013-03-27 17:05:00,
2013-03-27 12:07:00,39.0,31.1,30.32,South,169,5.0,9.0,73,0.00,,,0.00,775,Wunderground v.1.15,2013-03-27 17:07:00,
2013-03-27 12:09:00,39.1,30.1,30.32,South,171,4.0,9.0,70,0.00,,,0.00,777,Wunderground v.1.15,2013-03-27 17:09:00,
2013-03-27 12:12:00,39.4,31.1,30.32,South,186,9.0,10.0,72,0.00,,,0.00,784,Wunderground v.1.15,2013-03-27 17:12:00,
2013-03-27 12:13:00,39.5,30.5,30.32,South,180,6.0,10.0,70,0.00,,,0.00,784,Wunderground v.1.15,2013-03-27 17:13:00,
2013-03-27 12:15:00,39.4,30.4,30.32,South,182,4.0,10.0,70,0.00,,,0.00,784,Wunderground v.1.15,2013-03-27 17:15:00,
2013-03-27 12:17:00,39.7,30.4,30.32,SSW,201,3.0,10.0,69,0.00,,,0.00,788,Wunderground v.1.15,2013-03-27 17:17:00,
2013-03-27 12:18:00,39.6,30.3,30.32,SSW,195,9.0,10.0,69,0.00,,,0.00,789,Wunderground v.1.15,2013-03-27 17:18:00,
2013-03-27 12:23:00,40.2,30.8,30.32,SE,126,9.0,11.0,69,0.00,,,0.00,796,Wunderground v.1.15,2013-03-27 17:23:00,
2013-03-27 12:28:00,39.7,29.6,30.32,SE,127,5.0,11.0,67,0.00,,,0.00,802,Wunderground v.1.15,2013-03-27 17:28:00,
2013-03-27 12:29:00,39.7,29.3,30.32,SE,126,4.0,11.0,66,0.00,,,0.00,802,Wunderground v.1.15,2013-03-27 17:29:00,
2013-03-27 12:34:00,39.9,30.5,30.31,SE,138,6.0,9.0,69,0.00,,,0.00,807,Wunderground v.1.15,2013-03-27 17:34:00,
2013-03-27 12:36:00,39.9,30.5,30.31,SSE,164,6.0,9.0,69,0.00,,,0.00,812,Wunderground v.1.15,2013-03-27 17:36:00,
2013-03-27 12:39:00,39.7,29.3,30.31,South,170,2.0,10.0,66,0.00,,,0.00,810,Wunderground v.1.15,2013-03-27 17:39:00,
2013-03-27 12:40:00,39.9,30.9,30.31,SSW,193,4.0,5.0,70,0.00,,,0.00,814,Wunderground v.1.15,2013-03-27 17:40:00,
2013-03-27 12:42:00,40.2,31.5,30.31,South,169,4.0,7.0,71,0.00,,,0.00,819,Wunderground v.1.15,2013-03-27 17:42:00,
2013-03-27 12:45:00,40.7,31.7,30.31,SSE,150,11.0,11.0,70,0.00,,,0.00,819,Wunderground v.1.15,2013-03-27 17:45:00,
2013-03-27 12:46:00,40.7,31.7,30.31,SE,142,10.0,11.0,70,0.00,,,0.00,819,Wunderground v.1.15,2013-03-27 17:46:00,
2013-03-27 12:47:00,40.7,31.7,30.31,SE,143,8.0,11.0,70,0.00,,,0.00,821,Wunderground v.1.15,2013-03-27 17:47:00,
2013-03-27 12:52:00,40.5,30.4,30.31,SSE,152,5.0,7.0,67,0.00,,,0.00,826,Wunderground v.1.15,2013-03-27 17:52:00,
2013-03-27 12:53:00,40.5,30.0,30.31,South,182,5.0,7.0,66,0.00,,,0.00,826,Wunderground v.1.15,2013-03-27 17:53:00,
2013-03-27 12:54:00,40.5,31.1,30.31,South,177,4.0,7.0,69,0.00,,,0.00,826,Wunderground v.1.15,2013-03-27 17:54:00,
2013-03-27 12:58:00,40.6,30.5,30.30,SE,146,3.0,8.0,67,0.00,,,0.00,821,Wunderground v.1.15,2013-03-27 17:58:00,
2013-03-27 12:59:00,40.5,30.0,30.30,SSE,148,1.0,8.0,66,0.00,,,0.00,819,Wunderground v.1.15,2013-03-27 17:59:00,
2013-03-27 13:00:00,40.2,29.0,30.30,SE,140,3.0,5.0,64,0.00,,,0.00,821,Wunderground v.1.15,2013-03-27 18:00:00,
2013-03-27 13:03:00,40.5,30.8,30.30,SE,131,4.0,5.0,68,0.00,,,0.00,816,Wunderground v.1.15,2013-03-27 18:03:00,
2013-03-27 13:05:00,41.1,32.8,30.30,South,172,8.0,8.0,72,0.00,,,0.00,824,Wunderground v.1.15,2013-03-27 18:05:00,
2013-03-27 13:08:00,41.8,32.4,30.30,SSE,150,9.0,9.0,69,0.00,,,0.00,833,Wunderground v.1.15,2013-03-27 18:08:00,
2013-03-27 13:09:00,41.7,31.2,30.30,SE,141,8.0,9.0,66,0.00,,,0.00,833,Wunderground v.1.15,2013-03-27 18:09:00,
2013-03-27 13:13:00,41.9,32.5,30.30,SSE,163,5.0,10.0,69,0.00,,,0.00,826,Wunderground v.1.15,2013-03-27 18:13:00,
2013-03-27 13:15:00,42.0,32.6,30.30,SSW,201,4.0,10.0,69,0.00,,,0.00,823,Wunderground v.1.15,2013-03-27 18:15:00,
2013-03-27 13:16:00,42.1,32.7,30.30,ESE,115,8.0,10.0,69,0.00,,,0.00,824,Wunderground v.1.15,2013-03-27 18:16:00,
2013-03-27 13:18:00,42.0,31.1,30.30,ESE,110,8.0,10.0,65,0.00,,,0.00,817,Wunderground v.1.15,2013-03-27 18:18:00,
2013-03-27 13:20:00,41.8,30.5,30.29,South,171,3.0,5.0,64,0.00,,,0.00,830,Wunderground v.1.15,2013-03-27 18:20:00,
2013-03-27 13:23:00,42.0,32.2,30.30,SE,137,4.0,10.0,68,0.00,,,0.00,816,Wunderground v.1.15,2013-03-27 18:23:00,
2013-03-27 13:24:00,42.2,32.4,30.29,SE,144,7.0,10.0,68,0.00,,,0.00,824,Wunderground v.1.15,2013-03-27 18:24:00,
2013-03-27 13:28:00,42.5,31.2,30.29,ESE,105,8.0,10.0,64,0.00,,,0.00,826,Wunderground v.1.15,2013-03-27 18:28:00,
2013-03-27 13:29:00,42.5,31.2,30.29,ESE,103,5.0,10.0,64,0.00,,,0.00,830,Wunderground v.1.15,2013-03-27 18:29:00,
2013-03-27 13:30:00,42.3,30.6,30.29,East,80,2.0,6.0,63,0.00,,,0.00,831,Wunderground v.1.15,2013-03-27 18:30:00,
2013-03-27 13:31:00,42.1,30.4,30.29,SE,136,4.0,6.0,63,0.00,,,0.00,819,Wunderground v.1.15,2013-03-27 18:31:00,
2013-03-27 13:34:00,41.9,31.0,30.29,ESE,109,5.0,10.0,65,0.00,,,0.00,817,Wunderground v.1.15,2013-03-27 18:34:00,
2013-03-27 13:35:00,41.9,31.0,30.29,ESE,113,5.0,10.0,65,0.00,,,0.00,817,Wunderground v.1.15,2013-03-27 18:35:00,
2013-03-27 13:36:00,41.9,30.6,30.29,East,101,7.0,10.0,64,0.00,,,0.00,803,Wunderground v.1.15,2013-03-27 18:36:00,
2013-03-27 13:38:00,41.7,30.0,30.29,SE,130,2.0,10.0,63,0.00,,,0.00,840,Wunderground v.1.15,2013-03-27 18:38:00,
2013-03-27 13:40:00,41.5,30.2,30.29,East,99,6.0,6.0,64,0.00,,,0.00,846,Wunderground v.1.15,2013-03-27 18:40:00,
2013-03-27 13:41:00,41.5,29.8,30.29,East,101,6.0,8.0,63,0.00,,,0.00,851,Wunderground v.1.15,2013-03-27 18:41:00,
2013-03-27 13:42:00,41.7,30.4,30.29,ESE,112,8.0,8.0,64,0.00,,,0.00,835,Wunderground v.1.15,2013-03-27 18:42:00,
2013-03-27 13:46:00,42.5,32.3,30.29,SE,144,4.0,9.0,67,0.00,,,0.00,791,Wunderground v.1.15,2013-03-27 18:46:00,
2013-03-27 13:47:00,42.5,31.9,30.29,SSE,165,5.0,9.0,66,0.00,,,0.00,789,Wunderground v.1.15,2013-03-27 18:47:00,
2013-03-27 13:48:00,42.6,32.0,30.29,ESE,118,5.0,9.0,66,0.00,,,0.00,779,Wunderground v.1.15,2013-03-27 18:48:00,
2013-03-27 13:49:00,42.7,32.1,30.29,ESE,103,3.0,9.0,66,0.00,,,0.00,772,Wunderground v.1.15,2013-03-27 18:49:00,
2013-03-27 13:52:00,42.5,30.8,30.29,East,96,6.0,6.0,63,0.00,,,0.00,714,Wunderground v.1.15,2013-03-27 18:52:00,
2013-03-27 13:55:00,42.4,30.7,30.29,ENE,76,7.0,9.0,63,0.00,,,0.00,761,Wunderground v.1.15,2013-03-27 18:55:00,
2013-03-27 13:57:00,42.2,29.3,30.28,East,101,5.0,9.0,60,0.00,,,0.00,791,Wunderground v.1.15,2013-03-27 18:57:00,
2013-03-27 13:58:00,42.2,28.9,30.28,East,82,2.0,9.0,59,0.00,,,0.00,744,Wunderground v.1.15,2013-03-27 18:58:00,
2013-03-27 14:00:00,42.3,30.6,30.28,SE,140,7.0,9.0,63,0.00,,,0.00,765,Wunderground v.1.15,2013-03-27 19:00:00,
2013-03-27 14:04:00,42.6,30.9,30.28,ESE,107,4.0,9.0,63,0.00,,,0.00,772,Wunderground v.1.15,2013-03-27 19:04:00,
2013-03-27 14:08:00,42.5,29.6,30.28,ESE,107,9.0,9.0,60,0.00,,,0.00,789,Wunderground v.1.15,2013-03-27 19:08:00,
2013-03-27 14:10:00,42.6,31.3,30.28,SE,144,7.0,10.0,64,0.00,,,0.00,821,Wunderground v.1.15,2013-03-27 19:10:00,
2013-03-27 14:11:00,42.7,31.0,30.28,South,169,5.0,7.0,63,0.00,,,0.00,823,Wunderground v.1.15,2013-03-27 19:11:00,
2013-03-27 14:13:00,42.7,29.8,30.28,ESE,122,7.0,8.0,60,0.00,,,0.00,816,Wunderground v.1.15,2013-03-27 19:13:00,
2013-03-27 14:15:00,42.7,29.4,30.28,ESE,118,9.0,10.0,59,0.00,,,0.00,814,Wunderground v.1.15,2013-03-27 19:15:00,
2013-03-27 14:17:00,42.6,28.0,30.28,East,94,5.0,10.0,56,0.00,,,0.00,809,Wunderground v.1.15,2013-03-27 19:17:00,
2013-03-27 14:19:00,42.7,28.9,30.28,ESE,123,8.0,10.0,58,0.00,,,0.00,812,Wunderground v.1.15,2013-03-27 19:19:00,
2013-03-27 14:20:00,42.7,29.4,30.28,SE,129,3.0,6.0,59,0.00,,,0.00,812,Wunderground v.1.15,2013-03-27 19:20:00,
2013-03-27 14:22:00,42.8,29.9,30.27,SSE,154,0.0,6.0,60,0.00,,,0.00,795,Wunderground v.1.15,2013-03-27 19:22:00,
2013-03-27 14:23:00,42.8,29.9,30.27,SSE,154,0.0,6.0,60,0.00,,,0.00,765,Wunderground v.1.15,2013-03-27 19:23:00,
2013-03-27 14:24:00,43.1,31.0,30.27,East,98,9.0,9.0,62,0.00,,,0.00,742,Wunderground v.1.15,2013-03-27 19:24:00,
2013-03-27 14:25:00,43.2,31.1,30.27,East,98,8.0,9.0,62,0.00,,,0.00,773,Wunderground v.1.15,2013-03-27 19:25:00,
2013-03-27 14:27:00,43.4,29.6,30.27,East,86,2.0,9.0,58,0.00,,,0.00,786,Wunderground v.1.15,2013-03-27 19:27:00,
2013-03-27 14:28:00,43.4,28.7,30.27,SE,138,3.0,9.0,56,0.00,,,0.00,798,Wunderground v.1.15,2013-03-27 19:28:00,
2013-03-27 14:30:00,43.1,27.6,30.27,SE,139,0.0,4.0,54,0.00,,,0.00,803,Wunderground v.1.15,2013-03-27 19:30:00,
2013-03-27 14:32:00,42.9,27.8,30.27,SE,139,0.0,4.0,55,0.00,,,0.00,805,Wunderground v.1.15,2013-03-27 19:32:00,
2013-03-27 14:34:00,43.1,30.6,30.27,SE,141,6.0,7.0,61,0.00,,,0.00,802,Wunderground v.1.15,2013-03-27 19:34:00,
2013-03-27 14:36:00,43.4,30.8,30.27,SSE,148,6.0,8.0,61,0.00,,,0.00,809,Wunderground v.1.15,2013-03-27 19:36:00,
2013-03-27 14:37:00,43.5,30.9,30.27,SSE,167,4.0,8.0,61,0.00,,,0.00,802,Wunderground v.1.15,2013-03-27 19:37:00,
2013-03-27 14:39:00,44.0,33.0,30.27,ESE,113,4.0,8.0,65,0.00,,,0.00,802,Wunderground v.1.15,2013-03-27 19:39:00,
2013-03-27 14:40:00,44.0,32.2,30.26,ENE,77,1.0,7.0,63,0.00,,,0.00,802,Wunderground v.1.15,2013-03-27 19:40:00,
2013-03-27 14:43:00,44.1,29.8,30.26,SE,139,2.0,9.0,57,0.00,,,0.00,761,Wunderground v.1.15,2013-03-27 19:43:00,
2013-03-27 14:45:00,43.9,30.5,30.27,ESE,105,10.0,10.0,59,0.00,,,0.00,758,Wunderground v.1.15,2013-03-27 19:45:00,
2013-03-27 14:46:00,43.9,30.5,30.26,ESE,107,10.0,10.0,59,0.00,,,0.00,758,Wunderground v.1.15,2013-03-27 19:46:00,
2013-03-27 14:47:00,44.0,30.6,30.26,ESE,109,7.0,10.0,59,0.00,,,0.00,761,Wunderground v.1.15,2013-03-27 19:47:00,
2013-03-27 14:50:00,43.7,29.9,30.26,East,96,8.0,8.0,58,0.00,,,0.00,775,Wunderground v.1.15,2013-03-27 19:50:00,
2013-03-27 14:51:00,44.0,30.6,30.26,SE,128,8.0,10.0,59,0.00,,,0.00,754,Wunderground v.1.15,2013-03-27 19:51:00,
2013-03-27 14:52:00,44.1,30.7,30.26,ESE,111,4.0,10.0,59,0.00,,,0.00,751,Wunderground v.1.15,2013-03-27 19:52:00,
2013-03-27 14:55:00,44.0,30.6,30.26,SSE,149,4.0,10.0,59,0.00,,,0.00,758,Wunderground v.1.15,2013-03-27 19:55:00,
2013-03-27 14:57:00,43.9,29.6,30.26,ENE,57,3.0,10.0,57,0.00,,,0.00,758,Wunderground v.1.15,2013-03-27 19:57:00,
2013-03-27 14:58:00,43.9,29.2,30.26,East,94,8.0,10.0,56,0.00,,,0.00,766,Wunderground v.1.15,2013-03-27 19:58:00,
2013-03-27 14:59:00,44.0,29.3,30.26,ESE,106,8.0,10.0,56,0.00,,,0.00,766,Wunderground v.1.15,2013-03-27 19:59:00,
2013-03-27 15:02:00,44.5,30.2,30.25,ESE,121,9.0,9.0,57,0.00,,,0.00,749,Wunderground v.1.15,2013-03-27 20:02:00,
2013-03-27 15:04:00,44.5,29.3,30.25,ENE,78,4.0,9.0,55,0.00,,,0.00,722,Wunderground v.1.15,2013-03-27 20:04:00,
2013-03-27 15:05:00,44.7,30.4,30.25,East,92,8.0,9.0,57,0.00,,,0.00,722,Wunderground v.1.15,2013-03-27 20:05:00,
2013-03-27 15:08:00,44.7,29.5,30.25,ESE,117,10.0,10.0,55,0.00,,,0.00,708,Wunderground v.1.15,2013-03-27 20:08:00,
2013-03-27 15:09:00,44.7,29.5,30.25,ESE,103,8.0,10.0,55,0.00,,,0.00,708,Wunderground v.1.15,2013-03-27 20:09:00,
2013-03-27 15:10:00,44.4,29.7,30.25,East,98,6.0,7.0,56,0.00,,,0.00,686,Wunderground v.1.15,2013-03-27 20:10:00,
2013-03-27 15:13:00,44.2,29.9,30.25,SSE,155,6.0,7.0,57,0.00,,,0.00,682,Wunderground v.1.15,2013-03-27 20:13:00,
2013-03-27 15:14:00,44.3,30.0,30.25,SE,144,5.0,7.0,57,0.00,,,0.00,698,Wunderground v.1.15,2013-03-27 20:14:00,
2013-03-27 15:16:00,44.5,31.5,30.25,ESE,123,5.0,9.0,60,0.00,,,0.00,700,Wunderground v.1.15,2013-03-27 20:16:00,
2013-03-27 15:17:00,44.6,30.3,30.25,ESE,107,8.0,9.0,57,0.00,,,0.00,671,Wunderground v.1.15,2013-03-27 20:17:00,
2013-03-27 15:19:00,44.7,29.5,30.24,East,82,3.0,9.0,55,0.00,,,0.00,652,Wunderground v.1.15,2013-03-27 20:19:00,
2013-03-27 15:21:00,44.8,29.6,30.24,SSE,148,3.0,7.0,55,0.00,,,0.00,645,Wunderground v.1.15,2013-03-27 20:21:00,
2013-03-27 15:23:00,44.9,30.1,30.25,ESE,103,4.0,11.0,56,0.00,,,0.00,680,Wunderground v.1.15,2013-03-27 20:23:00,
2013-03-27 15:24:00,45.0,30.7,30.24,ESE,112,7.0,11.0,57,0.00,,,0.00,717,Wunderground v.1.15,2013-03-27 20:24:00,
2013-03-27 15:26:00,45.2,31.7,30.24,ESE,110,10.0,11.0,59,0.00,,,0.00,719,Wunderground v.1.15,2013-03-27 20:26:00,
2013-03-27 15:28:00,45.2,30.0,30.24,SE,133,7.0,11.0,55,0.00,,,0.00,722,Wunderground v.1.15,2013-03-27 20:28:00,
2013-03-27 15:31:00,44.6,29.4,30.24,SE,125,5.0,6.0,55,0.00,,,0.00,729,Wunderground v.1.15,2013-03-27 20:31:00,
2013-03-27 15:32:00,44.6,30.3,30.24,SE,127,8.0,8.0,57,0.00,,,0.00,729,Wunderground v.1.15,2013-03-27 20:32:00,
2013-03-27 15:35:00,44.7,30.0,30.24,SSE,153,4.0,10.0,56,0.00,,,0.00,689,Wunderground v.1.15,2013-03-27 20:35:00,
2013-03-27 15:37:00,45.2,33.7,30.24,SE,134,5.0,10.0,64,0.00,,,0.00,705,Wunderground v.1.15,2013-03-27 20:37:00,
2013-03-27 15:39:00,45.4,32.7,30.24,SSE,163,8.0,11.0,61,0.00,,,0.00,700,Wunderground v.1.15,2013-03-27 20:39:00,
2013-03-27 15:40:00,45.4,32.3,30.24,SE,134,8.0,11.0,60,0.00,,,0.00,700,Wunderground v.1.15,2013-03-27 20:40:00,
2013-03-27 15:43:00,45.2,31.3,30.24,ESE,114,4.0,8.0,58,0.00,,,0.00,701,Wunderground v.1.15,2013-03-27 20:43:00,
2013-03-27 15:44:00,45.2,30.9,30.24,ENE,61,9.0,9.0,57,0.00,,,0.00,693,Wunderground v.1.15,2013-03-27 20:44:00,
2013-03-27 15:45:00,45.2,30.9,30.24,ENE,69,5.0,9.0,57,0.00,,,0.00,649,Wunderground v.1.15,2013-03-27 20:45:00,
2013-03-27 15:48:00,45.7,31.3,30.24,ENE,75,5.0,9.0,57,0.00,,,0.00,568,Wunderground v.1.15,2013-03-27 20:48:00,
2013-03-27 15:50:00,45.5,29.3,30.24,ENE,78,3.0,9.0,53,0.00,,,0.00,570,Wunderground v.1.15,2013-03-27 20:50:00,
2013-03-27 15:54:00,45.2,30.9,30.24,East,99,8.0,9.0,57,0.00,,,0.00,554,Wunderground v.1.15,2013-03-27 20:54:00,
2013-03-27 15:55:00,45.3,30.1,30.24,ESE,103,5.0,9.0,55,0.00,,,0.00,621,Wunderground v.1.15,2013-03-27 20:55:00,
2013-03-27 15:56:00,45.1,29.9,30.24,East,86,6.0,9.0,55,0.00,,,0.00,635,Wunderground v.1.15,2013-03-27 20:56:00,
2013-03-27 15:59:00,45.2,30.9,30.24,ESE,111,7.0,11.0,57,0.00,,,0.00,622,Wunderground v.1.15,2013-03-27 20:59:00,
2013-03-27 16:00:00,45.2,31.7,30.24,ESE,103,4.0,11.0,59,0.00,,,0.00,622,Wunderground v.1.15,2013-03-27 21:00:00,
2013-03-27 16:03:00,45.3,30.5,30.23,East,98,3.0,7.0,56,0.00,,,0.00,615,Wunderground v.1.15,2013-03-27 21:03:00,
2013-03-27 16:05:00,45.4,29.7,30.23,East,81,5.0,8.0,54,0.00,,,0.00,628,Wunderground v.1.15,2013-03-27 21:05:00,
2013-03-27 16:09:00,45.6,30.8,30.23,ESE,118,11.0,11.0,56,0.00,,,0.00,612,Wunderground v.1.15,2013-03-27 21:09:00,
2013-03-27 16:11:00,45.6,31.2,30.23,ESE,117,5.0,8.0,57,0.00,,,0.00,612,Wunderground v.1.15,2013-03-27 21:11:00,
2013-03-27 16:12:00,45.4,31.0,30.23,ESE,112,9.0,9.0,57,0.00,,,0.00,610,Wunderground v.1.15,2013-03-27 21:12:00,
2013-03-27 16:14:00,45.4,29.7,30.23,ESE,115,4.0,10.0,54,0.00,,,0.00,603,Wunderground v.1.15,2013-03-27 21:14:00,
2013-03-27 16:16:00,45.2,28.1,30.23,East,91,2.0,10.0,51,0.00,,,0.00,582,Wunderground v.1.15,2013-03-27 21:16:00,
2013-03-27 16:17:00,45.1,29.0,30.23,ESE,119,4.0,10.0,53,0.00,,,0.00,582,Wunderground v.1.15,2013-03-27 21:17:00,
2013-03-27 16:20:00,45.2,30.0,30.23,SE,130,4.0,5.0,55,0.00,,,0.00,582,Wunderground v.1.15,2013-03-27 21:20:00,
2013-03-27 16:22:00,45.5,31.6,30.23,SE,136,8.0,10.0,58,0.00,,,0.00,582,Wunderground v.1.15,2013-03-27 21:22:00,
2013-03-27 16:23:00,45.5,30.3,30.23,SE,129,4.0,10.0,55,0.00,,,0.00,582,Wunderground v.1.15,2013-03-27 21:23:00,
2013-03-27 16:27:00,45.8,30.5,30.23,ESE,123,9.0,10.0,55,0.00,,,0.00,564,Wunderground v.1.15,2013-03-27 21:27:00,
2013-03-27 16:28:00,45.8,30.1,30.23,SE,134,7.0,11.0,54,0.00,,,0.00,561,Wunderground v.1.15,2013-03-27 21:28:00,
2013-03-27 16:29:00,45.7,31.3,30.23,SE,138,9.0,11.0,57,0.00,,,0.00,557,Wunderground v.1.15,2013-03-27 21:29:00,
2013-03-27 16:33:00,45.5,30.3,30.23,ESE,112,5.0,10.0,55,0.00,,,0.00,545,Wunderground v.1.15,2013-03-27 21:33:00,
2013-03-27 16:34:00,45.6,30.8,30.23,East,83,7.0,10.0,56,0.00,,,0.00,541,Wunderground v.1.15,2013-03-27 21:34:00,
2013-03-27 16:35:00,45.6,29.4,30.23,ENE,70,2.0,10.0,53,0.00,,,0.00,541,Wunderground v.1.15,2013-03-27 21:35:00,
2013-03-27 16:38:00,45.8,29.6,30.23,East,92,10.0,10.0,53,0.00,,,0.00,526,Wunderground v.1.15,2013-03-27 21:38:00,
2013-03-27 16:40:00,45.8,30.1,30.23,ESE,111,7.0,10.0,54,0.00,,,0.00,522,Wunderground v.1.15,2013-03-27 21:40:00,
2013-03-27 16:45:00,45.8,29.2,30.22,SE,132,3.0,10.0,52,0.00,,,0.00,512,Wunderground v.1.15,2013-03-27 21:45:00,
2013-03-27 16:46:00,45.6,28.5,30.22,ESE,109,2.0,10.0,51,0.00,,,0.00,506,Wunderground v.1.15,2013-03-27 21:46:00,
2013-03-27 16:47:00,45.6,29.4,30.23,ESE,103,7.0,10.0,53,0.00,,,0.00,503,Wunderground v.1.15,2013-03-27 21:47:00,
2013-03-27 16:52:00,46.1,29.9,30.23,ESE,108,4.0,10.0,53,0.00,,,0.00,494,Wunderground v.1.15,2013-03-27 21:52:00,
2013-03-27 16:53:00,46.0,29.3,30.23,ESE,105,8.0,10.0,52,0.00,,,0.00,487,Wunderground v.1.15,2013-03-27 21:53:00,
2013-03-27 16:54:00,46.0,29.3,30.23,SE,138,4.0,10.0,52,0.00,,,0.00,485,Wunderground v.1.15,2013-03-27 21:54:00,
2013-03-27 16:58:00,46.0,29.8,30.23,SE,131,10.0,10.0,53,0.00,,,0.00,473,Wunderground v.1.15,2013-03-27 21:58:00,
2013-03-27 16:59:00,46.0,29.3,30.23,East,85,7.0,10.0,52,0.00,,,0.00,469,Wunderground v.1.15,2013-03-27 21:59:00,
2013-03-27 17:03:00,46.0,28.4,30.23,ESE,123,5.0,8.0,50,0.00,,,0.00,446,Wunderground v.1.15,2013-03-27 22:03:00,
2013-03-27 17:04:00,45.9,28.3,30.23,East,90,6.0,9.0,50,0.00,,,0.00,443,Wunderground v.1.15,2013-03-27 22:04:00,
2013-03-27 17:06:00,46.0,28.4,30.23,East,95,7.0,9.0,50,0.00,,,0.00,443,Wunderground v.1.15,2013-03-27 22:06:00,
2013-03-27 17:07:00,46.1,28.5,30.23,East,90,8.0,9.0,50,0.00,,,0.00,436,Wunderground v.1.15,2013-03-27 22:07:00,
2013-03-27 17:09:00,46.0,27.9,30.23,ESE,103,4.0,9.0,49,0.00,,,0.00,429,Wunderground v.1.15,2013-03-27 22:09:00,
2013-03-27 17:12:00,46.1,28.0,30.23,East,93,7.0,7.0,49,0.00,,,0.00,420,Wunderground v.1.15,2013-03-27 22:12:00,
2013-03-27 17:14:00,46.1,28.5,30.23,ESE,121,3.0,7.0,50,0.00,,,0.00,417,Wunderground v.1.15,2013-03-27 22:14:00,
2013-03-27 17:19:00,46.1,29.9,30.23,ESE,111,8.0,8.0,53,0.00,,,0.00,401,Wunderground v.1.15,2013-03-27 22:19:00,
2013-03-27 17:20:00,46.1,29.4,30.23,East,85,5.0,5.0,52,0.00,,,0.00,396,Wunderground v.1.15,2013-03-27 22:20:00,
2013-03-27 17:24:00,45.9,29.7,30.23,SE,145,6.0,7.0,53,0.00,,,0.00,381,Wunderground v.1.15,2013-03-27 22:24:00,
2013-03-27 17:25:00,45.8,29.6,30.23,SE,137,5.0,7.0,53,0.00,,,0.00,374,Wunderground v.1.15,2013-03-27 22:25:00,
2013-03-27 17:26:00,45.8,30.1,30.23,ESE,123,5.0,8.0,54,0.00,,,0.00,373,Wunderground v.1.15,2013-03-27 22:26:00,
2013-03-27 17:30:00,45.9,29.2,30.24,SE,142,5.0,6.0,52,0.00,,,0.00,359,Wunderground v.1.15,2013-03-27 22:30:00,
2013-03-27 17:31:00,46.0,31.6,30.24,SE,145,6.0,6.0,57,0.00,,,0.00,355,Wunderground v.1.15,2013-03-27 22:31:00,
2013-03-27 17:33:00,45.9,29.2,30.24,SE,130,4.0,6.0,52,0.00,,,0.00,308,Wunderground v.1.15,2013-03-27 22:33:00,
2013-03-27 17:36:00,45.8,31.4,30.24,SE,142,6.0,10.0,57,0.00,,,0.00,197,Wunderground v.1.15,2013-03-27 22:36:00,
2013-03-27 17:38:00,45.7,30.0,30.24,ESE,123,8.0,10.0,54,0.00,,,0.00,192,Wunderground v.1.15,2013-03-27 22:38:00,
2013-03-27 17:40:00,45.5,28.9,30.24,ESE,103,3.0,10.0,52,0.00,,,0.00,163,Wunderground v.1.15,2013-03-27 22:40:00,
2013-03-27 17:42:00,45.4,28.8,30.24,ESE,120,7.0,7.0,52,0.00,,,0.00,163,Wunderground v.1.15,2013-03-27 22:42:00,
2013-03-27 17:43:00,45.4,29.7,30.24,SSE,150,7.0,7.0,54,0.00,,,0.00,295,Wunderground v.1.15,2013-03-27 22:43:00,
2013-03-27 17:47:00,45.5,29.3,30.24,ESE,115,4.0,8.0,53,0.00,,,0.00,221,Wunderground v.1.15,2013-03-27 22:47:00,
2013-03-27 17:48:00,45.5,29.8,30.24,SSE,157,6.0,8.0,54,0.00,,,0.00,220,Wunderground v.1.15,2013-03-27 22:48:00,
2013-03-27 17:49:00,45.5,30.7,30.24,SE,139,7.0,8.0,56,0.00,,,0.00,127,Wunderground v.1.15,2013-03-27 22:49:00,
2013-03-27 17:50:00,45.4,31.0,30.24,SE,144,6.0,6.0,57,0.00,,,0.00,127,Wunderground v.1.15,2013-03-27 22:50:00,
2013-03-27 17:53:00,45.1,30.8,30.24,SE,140,8.0,8.0,57,0.00,,,0.00,107,Wunderground v.1.15,2013-03-27 22:53:00,
2013-03-27 17:55:00,44.9,30.1,30.24,SE,132,4.0,10.0,56,0.00,,,0.00,109,Wunderground v.1.15,2013-03-27 22:55:00,
2013-03-27 17:58:00,44.8,30.5,30.24,SE,138,6.0,10.0,57,0.00,,,0.00,125,Wunderground v.1.15,2013-03-27 22:58:00,
2013-03-27 18:00:00,44.7,30.0,30.24,ESE,121,5.0,10.0,56,0.00,,,0.00,216,Wunderground v.1.15,2013-03-27 23:00:00,
2013-03-27 18:02:00,44.8,30.0,30.24,SE,134,4.0,7.0,56,0.00,,,0.00,144,Wunderground v.1.15,2013-03-27 23:02:00,
2013-03-27 18:04:00,44.8,30.5,30.24,SE,132,4.0,7.0,57,0.00,,,0.00,134,Wunderground v.1.15,2013-03-27 23:04:00,
2013-03-27 18:05:00,44.8,30.0,30.24,SE,128,6.0,8.0,56,0.00,,,0.00,135,Wunderground v.1.15,2013-03-27 23:05:00,
2013-03-27 18:07:00,44.8,30.0,30.23,SE,130,6.0,8.0,56,0.00,,,0.00,148,Wunderground v.1.15,2013-03-27 23:07:00,
2013-03-27 18:10:00,44.8,30.9,30.24,SE,136,4.0,8.0,58,0.00,,,0.00,127,Wunderground v.1.15,2013-03-27 23:10:00,
2013-03-27 18:15:00,44.6,29.9,30.24,SSE,150,6.0,7.0,56,0.00,,,0.00,105,Wunderground v.1.15,2013-03-27 23:15:00,
2013-03-27 18:16:00,44.6,29.9,30.24,SE,130,4.0,7.0,56,0.00,,,0.00,100,Wunderground v.1.15,2013-03-27 23:16:00,
2013-03-27 18:18:00,44.6,29.9,30.24,SE,138,3.0,7.0,56,0.00,,,0.00,90,Wunderground v.1.15,2013-03-27 23:18:00,
2013-03-27 18:20:00,44.6,29.4,30.24,ESE,121,5.0,5.0,55,0.00,,,0.00,86,Wunderground v.1.15,2013-03-27 23:20:00,
2013-03-27 18:21:00,44.6,29.9,30.24,SE,141,4.0,6.0,56,0.00,,,0.00,83,Wunderground v.1.15,2013-03-27 23:21:00,
2013-03-27 18:22:00,44.6,30.7,30.24,SE,140,4.0,6.0,58,0.00,,,0.00,81,Wunderground v.1.15,2013-03-27 23:22:00,
2013-03-27 18:23:00,44.5,30.6,30.24,SE,138,3.0,6.0,58,0.00,,,0.00,79,Wunderground v.1.15,2013-03-27 23:23:00,
2013-03-27 18:25:00,44.4,29.7,30.24,SE,134,6.0,7.0,56,0.00,,,0.00,76,Wunderground v.1.15,2013-03-27 23:25:00,
2013-03-27 18:27:00,44.3,29.6,30.24,SE,139,5.0,7.0,56,0.00,,,0.00,74,Wunderground v.1.15,2013-03-27 23:27:00,
2013-03-27 18:28:00,44.3,30.0,30.24,SE,132,4.0,7.0,57,0.00,,,0.00,74,Wunderground v.1.15,2013-03-27 23:28:00,
2013-03-27 18:29:00,44.2,29.9,30.24,SE,139,5.0,7.0,57,0.00,,,0.00,74,Wunderground v.1.15,2013-03-27 23:29:00,
2013-03-27 18:31:00,44.1,31.1,30.24,SSE,155,3.0,5.0,60,0.00,,,0.00,74,Wunderground v.1.15,2013-03-27 23:31:00,
2013-03-27 18:33:00,43.7,31.1,30.24,SSE,147,6.0,6.0,61,0.00,,,0.00,88,Wunderground v.1.15,2013-03-27 23:33:00,
2013-03-27 18:34:00,43.7,31.1,30.24,SE,125,2.0,6.0,61,0.00,,,0.00,77,Wunderground v.1.15,2013-03-27 23:34:00,
2013-03-27 18:38:00,43.8,30.8,30.24,SE,124,5.0,6.0,60,0.00,,,0.00,76,Wunderground v.1.15,2013-03-27 23:38:00,
2013-03-27 18:41:00,44.1,28.9,30.24,ESE,119,3.0,5.0,55,0.00,,,0.00,102,Wunderground v.1.15,2013-03-27 23:41:00,
2013-03-27 18:43:00,44.2,29.0,30.24,ESE,117,3.0,7.0,55,0.00,,,0.00,97,Wunderground v.1.15,2013-03-27 23:43:00,
2013-03-27 18:44:00,44.2,29.5,30.24,ESE,117,3.0,7.0,56,0.00,,,0.00,97,Wunderground v.1.15,2013-03-27 23:44:00,
2013-03-27 18:47:00,44.2,30.3,30.24,SSE,159,3.0,7.0,58,0.00,,,0.00,100,Wunderground v.1.15,2013-03-27 23:47:00,
2013-03-27 18:49:00,44.2,30.3,30.24,SE,139,3.0,7.0,58,0.00,,,0.00,91,Wunderground v.1.15,2013-03-27 23:49:00,
2013-03-27 18:50:00,44.2,29.5,30.24,SE,138,4.0,5.0,56,0.00,,,0.00,69,Wunderground v.1.15,2013-03-27 23:50:00,
2013-03-27 18:52:00,44.2,29.0,30.24,SE,135,3.0,6.0,55,0.00,,,0.00,72,Wunderground v.1.15,2013-03-27 23:52:00,
2013-03-27 18:54:00,44.2,29.0,30.24,SE,133,5.0,8.0,55,0.00,,,0.00,67,Wunderground v.1.15,2013-03-27 23:54:00,
2013-03-27 18:57:00,44.1,28.9,30.24,SE,131,4.0,8.0,55,0.00,,,0.00,60,Wunderground v.1.15,2013-03-27 23:57:00,
2013-03-27 19:02:00,43.9,28.8,30.24,ESE,123,3.0,8.0,55,0.00,,,0.00,62,Wunderground v.1.15,2013-03-28 00:02:00,
2013-03-27 19:03:00,43.8,29.1,30.24,ESE,123,3.0,8.0,56,0.00,,,0.00,54,Wunderground v.1.15,2013-03-28 00:03:00,
2013-03-27 19:05:00,43.8,28.7,30.24,ESE,123,5.0,8.0,55,0.00,,,0.00,49,Wunderground v.1.15,2013-03-28 00:05:00,
2013-03-27 19:07:00,43.8,28.7,30.24,SE,136,7.0,8.0,55,0.00,,,0.00,44,Wunderground v.1.15,2013-03-28 00:07:00,
2013-03-27 19:08:00,43.8,28.7,30.24,ESE,121,3.0,8.0,55,0.00,,,0.00,42,Wunderground v.1.15,2013-03-28 00:08:00,
2013-03-27 19:09:00,43.7,29.0,30.24,ESE,123,7.0,8.0,56,0.00,,,0.00,39,Wunderground v.1.15,2013-03-28 00:09:00,
2013-03-27 19:11:00,43.7,29.0,30.24,ESE,115,4.0,7.0,56,0.00,,,0.00,32,Wunderground v.1.15,2013-03-28 00:11:00,
2013-03-27 19:12:00,43.6,28.5,30.24,ESE,121,5.0,7.0,55,0.00,,,0.00,32,Wunderground v.1.15,2013-03-28 00:12:00,
2013-03-27 19:13:00,43.6,28.9,30.24,ESE,122,3.0,7.0,56,0.00,,,0.00,28,Wunderground v.1.15,2013-03-28 00:13:00,
2013-03-27 19:15:00,43.4,29.2,30.24,ESE,114,4.0,7.0,57,0.00,,,0.00,25,Wunderground v.1.15,2013-03-28 00:15:00,
2013-03-27 19:18:00,43.2,29.0,30.24,SE,126,4.0,7.0,57,0.00,,,0.00,21,Wunderground v.1.15,2013-03-28 00:18:00,
2013-03-27 19:20:00,43.1,29.3,30.24,SE,127,4.0,7.0,58,0.00,,,0.00,19,Wunderground v.1.15,2013-03-28 00:20:00,
2013-03-27 19:22:00,43.0,29.2,30.24,ESE,120,4.0,5.0,58,0.00,,,0.00,18,Wunderground v.1.15,2013-03-28 00:22:00,
2013-03-27 19:23:00,42.9,29.1,30.24,ESE,115,3.0,5.0,58,0.00,,,0.00,16,Wunderground v.1.15,2013-03-28 00:23:00,
2013-03-27 19:24:00,42.9,29.1,30.24,ESE,115,2.0,5.0,58,0.00,,,0.00,16,Wunderground v.1.15,2013-03-28 00:24:00,
2013-03-27 19:28:00,42.6,29.3,30.24,ESE,115,3.0,5.0,59,0.00,,,0.00,12,Wunderground v.1.15,2013-03-28 00:28:00,
2013-03-27 19:29:00,42.6,29.3,30.24,ESE,115,2.0,5.0,59,0.00,,,0.00,12,Wunderground v.1.15,2013-03-28 00:29:00,
2013-03-27 19:30:00,42.5,29.6,30.24,ESE,115,3.0,5.0,60,0.00,,,0.00,12,Wunderground v.1.15,2013-03-28 00:30:00,
2013-03-27 19:34:00,42.4,29.1,30.24,SE,128,2.0,5.0,59,0.00,,,0.00,7,Wunderground v.1.15,2013-03-28 00:34:00,
2013-03-27 19:35:00,42.4,29.1,30.24,SE,128,4.0,5.0,59,0.00,,,0.00,7,Wunderground v.1.15,2013-03-28 00:35:00,
2013-03-27 19:36:00,42.3,29.0,30.24,SE,132,3.0,5.0,59,0.00,,,0.00,5,Wunderground v.1.15,2013-03-28 00:36:00,
2013-03-27 19:39:00,42.2,28.9,30.24,ESE,118,5.0,5.0,59,0.00,,,0.00,5,Wunderground v.1.15,2013-03-28 00:39:00,
2013-03-27 19:41:00,42.2,28.9,30.24,SE,131,3.0,5.0,59,0.00,,,0.00,0,Wunderground v.1.15,2013-03-28 00:41:00,
2013-03-27 19:44:00,42.0,29.1,30.24,SE,125,4.0,5.0,60,0.00,,,0.00,0,Wunderground v.1.15,2013-03-28 00:44:00,
2013-03-27 19:45:00,42.0,29.1,30.25,ESE,121,2.0,5.0,60,0.00,,,0.00,0,Wunderground v.1.15,2013-03-28 00:45:00,
2013-03-27 19:47:00,41.9,29.0,30.25,ESE,123,3.0,5.0,60,0.00,,,0.00,0,Wunderground v.1.15,2013-03-28 00:47:00,
2013-03-27 19:49:00,41.7,28.8,30.25,ESE,123,2.0,5.0,60,0.00,,,0.00,0,Wunderground v.1.15,2013-03-28 00:49:00,
2013-03-27 19:50:00,41.6,28.7,30.25,ESE,119,3.0,7.0,60,0.00,,,0.00,0,Wunderground v.1.15,2013-03-28 00:50:00,
2013-03-27 19:52:00,41.5,29.0,30.25,ESE,119,2.0,7.0,61,0.00,,,0.00,0,Wunderground v.1.15,2013-03-28 00:52:00,
2013-03-27 19:53:00,41.5,28.6,30.25,ESE,122,3.0,7.0,60,0.00,,,0.00,0,Wunderground v.1.15,2013-03-28 00:53:00,
2013-03-27 19:56:00,41.3,28.9,30.25,SE,127,2.0,7.0,61,0.00,,,0.00,0,Wunderground v.1.15,2013-03-28 00:56:00,
2013-03-27 19:58:00,41.2,28.8,30.25,ESE,123,3.0,7.0,61,0.00,,,0.00,0,Wunderground v.1.15,2013-03-28 00:58:00,
2013-03-27 20:01:00,41.1,28.7,30.25,ESE,123,2.0,3.0,61,0.00,,,0.00,0,Wunderground v.1.15,2013-03-28 01:01:00,
2013-03-27 20:03:00,40.9,28.5,30.25,ESE,123,2.0,3.0,61,0.00,,,0.00,0,Wunderground v.1.15,2013-03-28 01:03:00,
2013-03-27 20:04:00,40.8,28.8,30.25,ESE,123,2.0,3.0,62,0.00,,,0.00,0,Wunderground v.1.15,2013-03-28 01:04:00,
2013-03-27 20:05:00,40.7,28.7,30.25,ESE,123,3.0,3.0,62,0.00,,,0.00,0,Wunderground v.1.15,2013-03-28 01:05:00,
2013-03-27 20:06:00,40.7,28.7,30.25,ESE,123,2.0,3.0,62,0.00,,,0.00,0,Wunderground v.1.15,2013-03-28 01:06:00,
2013-03-27 20:08:00,40.6,28.6,30.25,ESE,123,2.0,3.0,62,0.00,,,0.00,0,Wunderground v.1.15,2013-03-28 01:08:00,
2013-03-27 20:11:00,40.3,28.3,30.25,ESE,123,2.0,2.0,62,0.00,,,0.00,0,Wunderground v.1.15,2013-03-28 01:11:00,
2013-03-27 20:13:00,40.0,28.0,30.25,ESE,123,2.0,2.0,62,0.00,,,0.00,0,Wunderground v.1.15,2013-03-28 01:13:00,
2013-03-27 20:14:00,39.9,27.9,30.25,ESE,123,1.0,2.0,62,0.00,,,0.00,0,Wunderground v.1.15,2013-03-28 01:14:00,
2013-03-27 20:17:00,39.8,28.2,30.25,ESE,117,2.0,3.0,63,0.00,,,0.00,0,Wunderground v.1.15,2013-03-28 01:17:00,
2013-03-27 20:19:00,39.8,28.6,30.25,ESE,116,2.0,3.0,64,0.00,,,0.00,0,Wunderground v.1.15,2013-03-28 01:19:00,
2013-03-27 20:23:00,39.7,28.5,30.25,ESE,116,0.0,1.0,64,0.00,,,0.00,0,Wunderground v.1.15,2013-03-28 01:23:00,
2013-03-27 20:24:00,39.7,28.5,30.25,ESE,116,0.0,1.0,64,0.00,,,0.00,0,Wunderground v.1.15,2013-03-28 01:24:00,
2013-03-27 20:25:00,39.6,28.8,30.25,ESE,116,1.0,1.0,65,0.00,,,0.00,0,Wunderground v.1.15,2013-03-28 01:25:00,
2013-03-27 20:28:00,39.3,28.5,30.25,ESE,116,1.0,2.0,65,0.00,,,0.00,0,Wunderground v.1.15,2013-03-28 01:28:00,
2013-03-27 20:30:00,39.1,28.7,30.25,ESE,116,2.0,2.0,66,0.00,,,0.00,0,Wunderground v.1.15,2013-03-28 01:30:00,
2013-03-27 20:32:00,39.0,28.6,30.26,ESE,116,2.0,3.0,66,0.00,,,0.00,0,Wunderground v.1.15,2013-03-28 01:32:00,
2013-03-27 20:35:00,38.7,28.7,30.25,ESE,116,1.0,3.0,67,0.00,,,0.00,0,Wunderground v.1.15,2013-03-28 01:35:00,
2013-03-27 20:37:00,38.3,28.7,30.25,ESE,115,2.0,3.0,68,0.00,,,0.00,0,Wunderground v.1.15,2013-03-28 01:37:00,
2013-03-27 20:40:00,38.1,28.5,30.25,ESE,115,1.0,2.0,68,0.00,,,0.00,0,Wunderground v.1.15,2013-03-28 01:40:00,
2013-03-27 20:41:00,37.8,28.2,30.26,ESE,115,0.0,2.0,68,0.00,,,0.00,0,Wunderground v.1.15,2013-03-28 01:41:00,
2013-03-27 20:44:00,37.4,28.2,30.26,ESE,115,1.0,2.0,69,0.00,,,0.00,0,Wunderground v.1.15,2013-03-28 01:44:00,
2013-03-27 20:46:00,36.9,27.7,30.26,ESE,115,1.0,2.0,69,0.00,,,0.00,0,Wunderground v.1.15,2013-03-28 01:46:00,
2013-03-27 20:47:00,36.8,27.9,30.26,ESE,115,0.0,2.0,70,0.00,,,0.00,0,Wunderground v.1.15,2013-03-28 01:47:00,
2013-03-27 20:48:00,36.6,27.7,30.26,ESE,115,2.0,2.0,70,0.00,,,0.00,0,Wunderground v.1.15,2013-03-28 01:48:00,
2013-03-27 20:50:00,36.6,28.1,30.26,ESE,115,2.0,2.0,71,0.00,,,0.00,0,Wunderground v.1.15,2013-03-28 01:50:00,
2013-03-27 20:52:00,36.7,28.2,30.26,ESE,115,1.0,2.0,71,0.00,,,0.00,0,Wunderground v.1.15,2013-03-28 01:52:00,
2013-03-27 20:56:00,37.3,28.8,30.26,ESE,111,1.0,3.0,71,0.00,,,0.00,0,Wunderground v.1.15,2013-03-28 01:56:00,
2013-03-27 20:57:00,37.4,28.9,30.26,ESE,111,2.0,3.0,71,0.00,,,0.00,0,Wunderground v.1.15,2013-03-28 01:57:00,
2013-03-27 20:58:00,37.3,28.8,30.26,ESE,111,1.0,3.0,71,0.00,,,0.00,0,Wunderground v.1.15,2013-03-28 01:58:00,
2013-03-27 21:02:00,37.1,28.2,30.26,ESE,111,2.0,2.0,70,0.00,,,0.00,0,Wunderground v.1.15,2013-03-28 02:02:00,
2013-03-27 21:04:00,37.1,28.6,30.26,ESE,111,2.0,3.0,71,0.00,,,0.00,0,Wunderground v.1.15,2013-03-28 02:04:00,
2013-03-27 21:05:00,37.1,28.6,30.26,ESE,111,2.0,3.0,71,0.00,,,0.00,0,Wunderground v.1.15,2013-03-28 02:05:00,
2013-03-27 21:08:00,37.2,28.3,30.26,ESE,108,2.0,3.0,70,0.00,,,0.00,0,Wunderground v.1.15,2013-03-28 02:08:00,
2013-03-27 21:09:00,37.3,28.4,30.26,ESE,108,2.0,3.0,70,0.00,,,0.00,0,Wunderground v.1.15,2013-03-28 02:09:00,
2013-03-27 21:10:00,37.4,28.5,30.26,ESE,108,2.0,2.0,70,0.00,,,0.00,0,Wunderground v.1.15,2013-03-28 02:10:00,
2013-03-27 21:13:00,37.5,28.6,30.26,ESE,106,2.0,2.0,70,0.00,,,0.00,0,Wunderground v.1.15,2013-03-28 02:13:00,
2013-03-27 21:16:00,37.4,28.5,30.26,ESE,105,3.0,3.0,70,0.00,,,0.00,0,Wunderground v.1.15,2013-03-28 02:16:00,
2013-03-27 21:19:00,37.4,28.5,30.26,ESE,103,2.0,3.0,70,0.00,,,0.00,0,Wunderground v.1.15,2013-03-28 02:19:00,
2013-03-27 21:21:00,37.3,28.4,30.26,ESE,103,2.0,2.0,70,0.00,,,0.00,0,Wunderground v.1.15,2013-03-28 02:21:00,
2013-03-27 21:22:00,37.3,28.4,30.26,ESE,103,3.0,3.0,70,0.00,,,0.00,0,Wunderground v.1.15,2013-03-28 02:22:00,
2013-03-27 21:25:00,37.3,28.4,30.26,ESE,103,2.0,3.0,70,0.00,,,0.00,0,Wunderground v.1.15,2013-03-28 02:25:00,
2013-03-27 21:28:00,37.4,28.5,30.26,ESE,103,1.0,3.0,70,0.00,,,0.00,0,Wunderground v.1.15,2013-03-28 02:28:00,
2013-03-27 21:29:00,37.3,28.4,30.26,ESE,103,0.0,3.0,70,0.00,,,0.00,0,Wunderground v.1.15,2013-03-28 02:29:00,
2013-03-27 21:30:00,37.1,28.2,30.26,ESE,103,2.0,3.0,70,0.00,,,0.00,0,Wunderground v.1.15,2013-03-28 02:30:00,
2013-03-27 21:33:00,36.9,28.0,30.27,ESE,103,1.0,3.0,70,0.00,,,0.00,0,Wunderground v.1.15,2013-03-28 02:33:00,
2013-03-27 21:34:00,37.0,28.5,30.26,ESE,103,2.0,3.0,71,0.00,,,0.00,0,Wunderground v.1.15,2013-03-28 02:34:00,
2013-03-27 21:36:00,37.0,28.5,30.27,ESE,103,2.0,3.0,71,0.00,,,0.00,0,Wunderground v.1.15,2013-03-28 02:36:00,
2013-03-27 21:37:00,37.0,28.5,30.27,ESE,103,1.0,3.0,71,0.00,,,0.00,0,Wunderground v.1.15,2013-03-28 02:37:00,
2013-03-27 21:38:00,37.1,28.6,30.27,ESE,103,0.0,3.0,71,0.00,,,0.00,0,Wunderground v.1.15,2013-03-28 02:38:00,
2013-03-27 21:41:00,37.2,28.3,30.27,ESE,103,1.0,2.0,70,0.00,,,0.00,0,Wunderground v.1.15,2013-03-28 02:41:00,
2013-03-27 21:42:00,37.2,28.3,30.27,ESE,103,2.0,2.0,70,0.00,,,0.00,0,Wunderground v.1.15,2013-03-28 02:42:00,
2013-03-27 21:43:00,37.2,28.3,30.27,ESE,103,2.0,3.0,70,0.00,,,0.00,0,Wunderground v.1.15,2013-03-28 02:43:00,
2013-03-27 21:47:00,37.2,28.3,30.27,ESE,103,2.0,3.0,70,0.00,,,0.00,0,Wunderground v.1.15,2013-03-28 02:47:00,
2013-03-27 21:48:00,37.2,28.3,30.27,ESE,103,2.0,3.0,70,0.00,,,0.00,0,Wunderground v.1.15,2013-03-28 02:48:00,
2013-03-27 21:49:00,37.2,28.3,30.27,ESE,103,2.0,3.0,70,0.00,,,0.00,0,Wunderground v.1.15,2013-03-28 02:49:00,
2013-03-27 21:50:00,37.3,28.1,30.27,ESE,103,1.0,3.0,69,0.00,,,0.00,0,Wunderground v.1.15,2013-03-28 02:50:00,
2013-03-27 21:53:00,37.3,28.1,30.27,ESE,103,1.0,3.0,69,0.00,,,0.00,0,Wunderground v.1.15,2013-03-28 02:53:00,
2013-03-27 21:54:00,37.4,28.2,30.27,ESE,103,1.0,3.0,69,0.00,,,0.00,0,Wunderground v.1.15,2013-03-28 02:54:00,
2013-03-27 21:55:00,37.5,28.2,30.27,ESE,103,1.0,3.0,69,0.00,,,0.00,0,Wunderground v.1.15,2013-03-28 02:55:00,
2013-03-27 21:57:00,37.5,28.2,30.27,ESE,103,2.0,3.0,69,0.00,,,0.00,0,Wunderground v.1.15,2013-03-28 02:57:00,
2013-03-27 22:00:00,37.5,28.2,30.27,ESE,103,2.0,2.0,69,0.00,,,0.00,0,Wunderground v.1.15,2013-03-28 03:00:00,
2013-03-27 22:01:00,37.5,28.2,30.27,ESE,103,2.0,2.0,69,0.00,,,0.00,0,Wunderground v.1.15,2013-03-28 03:01:00,
2013-03-27 22:02:00,37.5,28.2,30.27,ESE,103,0.0,2.0,69,0.00,,,0.00,0,Wunderground v.1.15,2013-03-28 03:02:00,
2013-03-27 22:03:00,37.5,28.2,30.27,ESE,103,2.0,2.0,69,0.00,,,0.00,0,Wunderground v.1.15,2013-03-28 03:03:00,
2013-03-27 22:07:00,37.1,27.9,30.27,ESE,103,0.0,2.0,69,0.00,,,0.00,0,Wunderground v.1.15,2013-03-28 03:07:00,
2013-03-27 22:09:00,36.6,27.4,30.27,ESE,103,0.0,2.0,69,0.00,,,0.00,0,Wunderground v.1.15,2013-03-28 03:09:00,
2013-03-27 22:13:00,36.1,27.6,30.27,ESE,103,1.0,2.0,71,0.00,,,0.00,0,Wunderground v.1.15,2013-03-28 03:13:00,
2013-03-27 22:14:00,36.1,27.6,30.27,ESE,103,3.0,3.0,71,0.00,,,0.00,0,Wunderground v.1.15,2013-03-28 03:14:00,
2013-03-27 22:17:00,36.2,27.7,30.27,ESE,103,2.0,3.0,71,0.00,,,0.00,0,Wunderground v.1.15,2013-03-28 03:17:00,
2013-03-27 22:19:00,36.3,27.8,30.27,ESE,103,1.0,3.0,71,0.00,,,0.00,0,Wunderground v.1.15,2013-03-28 03:19:00,
2013-03-27 22:20:00,36.3,27.8,30.27,ESE,103,2.0,2.0,71,0.00,,,0.00,0,Wunderground v.1.15,2013-03-28 03:20:00,
2013-03-27 22:22:00,36.2,27.7,30.28,ESE,103,2.0,2.0,71,0.00,,,0.00,0,Wunderground v.1.15,2013-03-28 03:22:00,
2013-03-27 22:25:00,36.3,27.8,30.27,ESE,103,2.0,3.0,71,0.00,,,0.00,0,Wunderground v.1.15,2013-03-28 03:25:00,
2013-03-27 22:27:00,36.3,27.8,30.28,ESE,103,1.0,3.0,71,0.00,,,0.00,0,Wunderground v.1.15,2013-03-28 03:27:00,
2013-03-27 22:28:00,36.3,27.8,30.27,ESE,103,1.0,3.0,71,0.00,,,0.00,0,Wunderground v.1.15,2013-03-28 03:28:00,
2013-03-27 22:32:00,36.4,27.9,30.28,ESE,103,2.0,2.0,71,0.00,,,0.00,0,Wunderground v.1.15,2013-03-28 03:32:00,
2013-03-27 22:34:00,36.3,27.8,30.28,ESE,103,2.0,2.0,71,0.00,,,0.00,0,Wunderground v.1.15,2013-03-28 03:34:00,
2013-03-27 22:35:00,36.3,27.8,30.27,ESE,103,2.0,2.0,71,0.00,,,0.00,0,Wunderground v.1.15,2013-03-28 03:35:00,
2013-03-27 22:37:00,36.3,27.4,30.27,ESE,103,2.0,3.0,70,0.00,,,0.00,0,Wunderground v.1.15,2013-03-28 03:37:00,
2013-03-27 22:39:00,36.2,27.4,30.27,East,94,2.0,5.0,70,0.00,,,0.00,0,Wunderground v.1.15,2013-03-28 03:39:00,
2013-03-27 22:40:00,36.2,27.4,30.27,East,94,1.0,2.0,70,0.00,,,0.00,0,Wunderground v.1.15,2013-03-28 03:40:00,
2013-03-27 22:42:00,36.3,27.4,30.27,East,94,2.0,2.0,70,0.00,,,0.00,0,Wunderground v.1.15,2013-03-28 03:42:00,
2013-03-27 22:43:00,36.3,27.4,30.27,East,94,2.0,2.0,70,0.00,,,0.00,0,Wunderground v.1.15,2013-03-28 03:43:00,
2013-03-27 22:45:00,36.3,27.4,30.28,East,94,2.0,3.0,70,0.00,,,0.00,0,Wunderground v.1.15,2013-03-28 03:45:00,
2013-03-27 22:47:00,36.3,27.4,30.28,East,92,2.0,3.0,70,0.00,,,0.00,0,Wunderground v.1.15,2013-03-28 03:47:00,
2013-03-27 22:48:00,36.3,27.4,30.28,East,92,2.0,3.0,70,0.00,,,0.00,0,Wunderground v.1.15,2013-03-28 03:48:00,
2013-03-27 22:50:00,36.2,27.4,30.28,East,92,3.0,3.0,70,0.00,,,0.00,0,Wunderground v.1.15,2013-03-28 03:50:00,
2013-03-27 22:52:00,36.1,27.3,30.28,East,92,2.0,3.0,70,0.00,,,0.00,0,Wunderground v.1.15,2013-03-28 03:52:00,
2013-03-27 22:53:00,36.1,27.3,30.28,East,92,1.0,3.0,70,0.00,,,0.00,0,Wunderground v.1.15,2013-03-28 03:53:00,
2013-03-27 22:54:00,36.0,27.2,30.28,East,92,1.0,3.0,70,0.00,,,0.00,0,Wunderground v.1.15,2013-03-28 03:54:00,
2013-03-27 22:57:00,35.9,27.4,30.28,East,92,2.0,5.0,71,0.00,,,0.00,0,Wunderground v.1.15,2013-03-28 03:57:00,
2013-03-27 22:59:00,35.9,27.4,30.28,East,90,2.0,5.0,71,0.00,,,0.00,0,Wunderground v.1.15,2013-03-28 03:59:00,
2013-03-27 23:00:00,35.9,27.4,30.28,East,87,3.0,5.0,71,0.00,,,0.00,0,Wunderground v.1.15,2013-03-28 04:00:00,
2013-03-27 23:01:00,35.9,27.4,30.28,East,91,2.0,3.0,71,0.00,,,0.00,0,Wunderground v.1.15,2013-03-28 04:01:00,
2013-03-27 23:03:00,35.9,27.4,30.28,East,92,5.0,5.0,71,0.00,,,0.00,0,Wunderground v.1.15,2013-03-28 04:03:00,
2013-03-27 23:05:00,35.9,27.4,30.27,East,84,6.0,6.0,71,0.00,,,0.00,0,Wunderground v.1.15,2013-03-28 04:05:00,
2013-03-27 23:06:00,35.9,27.4,30.28,East,87,2.0,6.0,71,0.00,,,0.00,0,Wunderground v.1.15,2013-03-28 04:06:00,
2013-03-27 23:08:00,36.0,27.8,30.28,East,95,6.0,6.0,72,0.00,,,0.00,0,Wunderground v.1.15,2013-03-28 04:08:00,
2013-03-27 23:09:00,36.0,27.8,30.28,East,92,3.0,6.0,72,0.00,,,0.00,0,Wunderground v.1.15,2013-03-28 04:09:00,
2013-03-27 23:10:00,36.0,27.8,30.28,East,90,3.0,3.0,72,0.00,,,0.00,0,Wunderground v.1.15,2013-03-28 04:10:00,
2013-03-27 23:12:00,36.0,27.8,30.27,East,85,2.0,5.0,72,0.00,,,0.00,0,Wunderground v.1.15,2013-03-28 04:12:00,
2013-03-27 23:13:00,36.0,27.8,30.27,ENE,78,4.0,5.0,72,0.00,,,0.00,0,Wunderground v.1.15,2013-03-28 04:13:00,
2013-03-27 23:15:00,36.1,27.9,30.27,East,84,3.0,5.0,72,0.00,,,0.00,0,Wunderground v.1.15,2013-03-28 04:15:00,
2013-03-27 23:17:00,36.1,28.3,30.27,East,84,5.0,6.0,73,0.00,,,0.00,0,Wunderground v.1.15,2013-03-28 04:17:00,
2013-03-27 23:18:00,36.0,28.2,30.27,East,80,3.0,6.0,73,0.00,,,0.00,0,Wunderground v.1.15,2013-03-28 04:18:00,
2013-03-27 23:20:00,36.0,28.2,30.27,East,79,3.0,6.0,73,0.00,,,0.00,0,Wunderground v.1.15,2013-03-28 04:20:00,
2013-03-27 23:21:00,35.9,28.1,30.27,East,79,5.0,5.0,73,0.00,,,0.00,0,Wunderground v.1.15,2013-03-28 04:21:00,
2013-03-27 23:23:00,35.8,28.0,30.27,East,84,2.0,5.0,73,0.00,,,0.00,0,Wunderground v.1.15,2013-03-28 04:23:00,
2013-03-27 23:25:00,35.8,28.3,30.27,East,88,3.0,5.0,74,0.00,,,0.00,0,Wunderground v.1.15,2013-03-28 04:25:00,
2013-03-27 23:27:00,35.7,28.2,30.27,East,88,3.0,5.0,74,0.00,,,0.00,0,Wunderground v.1.15,2013-03-28 04:27:00,
2013-03-27 23:29:00,35.7,28.2,30.28,East,83,6.0,6.0,74,0.00,,,0.00,0,Wunderground v.1.15,2013-03-28 04:29:00,
2013-03-27 23:32:00,35.7,28.6,30.27,East,98,3.0,5.0,75,0.00,,,0.00,0,Wunderground v.1.15,2013-03-28 04:32:00,
2013-03-27 23:34:00,35.6,28.1,30.28,East,90,3.0,5.0,74,0.00,,,0.00,0,Wunderground v.1.15,2013-03-28 04:34:00,
2013-03-27 23:35:00,35.6,28.1,30.28,East,90,2.0,5.0,74,0.00,,,0.00,0,Wunderground v.1.15,2013-03-28 04:35:00,
2013-03-27 23:37:00,35.4,28.3,30.28,East,88,3.0,5.0,75,0.00,,,0.00,0,Wunderground v.1.15,2013-03-28 04:37:00,
2013-03-27 23:40:00,35.3,28.2,30.28,East,82,3.0,6.0,75,0.00,,,0.00,0,Wunderground v.1.15,2013-03-28 04:40:00,
2013-03-27 23:41:00,35.3,28.2,30.28,East,82,5.0,5.0,75,0.00,,,0.00,0,Wunderground v.1.15,2013-03-28 04:41:00,
2013-03-27 23:43:00,35.3,28.5,30.28,East,81,3.0,5.0,76,0.00,,,0.00,0,Wunderground v.1.15,2013-03-28 04:43:00,
2013-03-27 23:46:00,35.3,28.5,30.28,East,86,6.0,6.0,76,0.00,,,0.00,0,Wunderground v.1.15,2013-03-28 04:46:00,
2013-03-27 23:47:00,35.4,28.6,30.28,East,85,2.0,6.0,76,0.00,,,0.00,0,Wunderground v.1.15,2013-03-28 04:47:00,
2013-03-27 23:48:00,35.4,28.6,30.28,East,85,7.0,7.0,76,0.00,,,0.00,0,Wunderground v.1.15,2013-03-28 04:48:00,
2013-03-27 23:52:00,35.5,28.7,30.28,East,83,7.0,7.0,76,0.00,,,0.00,0,Wunderground v.1.15,2013-03-28 04:52:00,
2013-03-27 23:55:00,35.4,28.6,30.27,ENE,78,4.0,7.0,76,0.00,,,0.00,0,Wunderground v.1.15,2013-03-28 04:55:00,
2013-03-27 23:57:00,35.4,28.6,30.27,East,85,5.0,7.0,76,0.00,,,0.00,0,Wunderground v.1.15,2013-03-28 04:57:00,
2013-03-27 23:59:00,35.4,28.6,30.27,East,84,5.0,7.0,76,0.00,,,0.00,0,Wunderground v.1.15,2013-03-28 04:59:00,